Wetterdaten: Dienstag, 01.12.2015
Datum Zeit Temp. Aussen Temp. o. S. +5cm Feuchte Auss BlattFeu 1 Luftdruck Regen Sonnenschein Regendauer Solar Windben Empfang
01.12.2015 00:00 10,6 C 10,6 C 9,4 C 98 % 15 lf 1013,7 hPa 0,0 l/m 0 min 2 min 0 W/m 43,9 km/h (6 Bft) 97,87 %
01.12.2015 00:02 10,6 C 10,6 C 9,4 C 98 % 15 lf 1013,7 hPa 0,0 l/m 0 min 2 min 0 W/m 35,6 km/h (5 Bft) 97,50 %
01.12.2015 00:05 10,6 C 10,6 C 9,4 C 98 % 15 lf 1013,7 hPa 0,0 l/m 0 min 2 min 0 W/m 41,8 km/h (6 Bft) 98,59 %
01.12.2015 00:06 10,6 C 10,6 C 9,4 C 98 % 15 lf 1013,7 hPa 0,2 l/m 0 min 1 min 0 W/m 29,3 km/h (5 Bft) 100,00 %
01.12.2015 00:08 10,6 C 10,6 C 9,4 C 98 % 15 lf 1013,7 hPa 0,0 l/m 0 min 2 min 0 W/m 46,0 km/h (6 Bft) 97,87 %
01.12.2015 00:10 10,6 C 10,6 C 9,4 C 98 % 15 lf 1013,7 hPa 0,0 l/m 0 min 2 min 0 W/m 37,7 km/h (5 Bft) 97,87 %
01.12.2015 00:12 10,6 C 10,6 C 9,4 C 98 % 15 lf 1013,8 hPa 0,0 l/m 0 min 2 min 0 W/m 39,7 km/h (6 Bft) 100,00 %
01.12.2015 00:14 10,6 C 10,6 C 9,4 C 98 % 15 lf 1013,9 hPa 0,0 l/m 0 min 2 min 0 W/m 39,7 km/h (6 Bft) 97,87 %
01.12.2015 00:16 10,6 C 10,6 C 9,4 C 98 % 15 lf 1013,9 hPa 0,0 l/m 0 min 2 min 0 W/m 46,0 km/h (6 Bft) 100,00 %
01.12.2015 00:18 10,6 C 10,6 C 9,4 C 98 % 15 lf 1013,9 hPa 0,0 l/m 0 min 2 min 0 W/m 33,5 km/h (5 Bft) 97,87 %
01.12.2015 00:20 10,6 C 10,6 C 9,4 C 98 % 15 lf 1013,9 hPa 0,2 l/m 0 min 2 min 0 W/m 31,4 km/h (5 Bft) 100,00 %
01.12.2015 00:22 10,6 C 10,6 C 9,4 C 98 % 15 lf 1014,1 hPa 0,0 l/m 0 min 2 min 0 W/m 31,4 km/h (5 Bft) 97,87 %
01.12.2015 00:24 10,6 C 10,6 C 9,4 C 98 % 15 lf 1014,1 hPa 0,0 l/m 0 min 2 min 0 W/m 29,3 km/h (5 Bft) 97,87 %
01.12.2015 00:26 10,7 C 10,6 C 9,4 C 98 % 15 lf 1014,2 hPa 0,0 l/m 0 min 2 min 0 W/m 33,5 km/h (5 Bft) 100,00 %
01.12.2015 00:28 10,7 C 10,6 C 9,4 C 98 % 15 lf 1014,2 hPa 0,2 l/m 0 min 2 min 0 W/m 39,7 km/h (6 Bft) 97,83 %
01.12.2015 00:30 10,7 C 10,6 C 9,4 C 98 % 15 lf 1014,2 hPa 0,0 l/m 0 min 2 min 0 W/m 27,2 km/h (4 Bft) 97,87 %
01.12.2015 00:32 10,7 C 10,6 C 9,4 C 98 % 15 lf 1014,2 hPa 0,0 l/m 0 min 2 min 0 W/m 33,5 km/h (5 Bft) 95,74 %
01.12.2015 00:34 10,7 C 10,6 C 9,4 C 98 % 15 lf 1014,1 hPa 0,0 l/m 0 min 2 min 0 W/m 33,5 km/h (5 Bft) 95,74 %
01.12.2015 00:36 10,7 C 10,6 C 9,4 C 98 % 15 lf 1014,2 hPa 0,0 l/m 0 min 2 min 0 W/m 46,0 km/h (6 Bft) 93,62 %
01.12.2015 00:38 10,7 C 10,6 C 9,4 C 98 % 15 lf 1014,2 hPa 0,2 l/m 0 min 2 min 0 W/m 39,7 km/h (6 Bft) 97,87 %
01.12.2015 00:40 10,7 C 10,6 C 9,4 C 98 % 15 lf 1014,2 hPa 0,0 l/m 0 min 2 min 0 W/m 41,8 km/h (6 Bft) 97,83 %
01.12.2015 00:42 10,7 C 10,6 C 9,4 C 98 % 15 lf 1014,2 hPa 0,0 l/m 0 min 2 min 0 W/m 33,5 km/h (5 Bft) 97,87 %
01.12.2015 00:44 10,7 C 10,6 C 9,4 C 98 % 15 lf 1014,4 hPa 0,0 l/m 0 min 2 min 0 W/m 31,4 km/h (5 Bft) 97,87 %
01.12.2015 00:46 10,7 C 10,6 C 9,4 C 98 % 15 lf 1014,5 hPa 0,2 l/m 0 min 2 min 0 W/m 25,1 km/h (4 Bft) 95,74 %
01.12.2015 00:48 10,7 C 10,6 C 9,4 C 98 % 15 lf 1014,6 hPa 0,0 l/m 0 min 2 min 0 W/m 37,7 km/h (5 Bft) 95,74 %
01.12.2015 00:50 10,7 C 10,6 C 9,4 C 98 % 15 lf 1014,7 hPa 0,0 l/m 0 min 2 min 0 W/m 25,1 km/h (4 Bft) 95,74 %
01.12.2015 00:52 10,7 C 10,6 C 9,4 C 98 % 15 lf 1014,7 hPa 0,0 l/m 0 min 2 min 0 W/m 31,4 km/h (5 Bft) 93,48 %
01.12.2015 00:54 10,7 C 10,6 C 9,4 C 98 % 15 lf 1014,7 hPa 0,0 l/m 0 min 2 min 0 W/m 33,5 km/h (5 Bft) 95,74 %
01.12.2015 00:56 10,8 C 10,6 C 9,4 C 98 % 15 lf 1014,8 hPa 0,0 l/m 0 min 2 min 0 W/m 27,2 km/h (4 Bft) 89,36 %
01.12.2015 00:58 10,8 C 10,6 C 9,4 C 98 % 15 lf 1014,7 hPa 0,2 l/m 0 min 2 min 0 W/m 33,5 km/h (5 Bft) 93,62 %
01.12.2015 01:00 10,8 C 10,6 C 9,4 C 98 % 15 lf 1014,8 hPa 0,0 l/m 0 min 2 min 0 W/m 31,4 km/h (5 Bft) 95,74 %
01.12.2015 01:02 10,8 C 10,6 C 9,4 C 98 % 15 lf 1014,9 hPa 0,0 l/m 0 min 2 min 0 W/m 31,4 km/h (5 Bft) 91,49 %
01.12.2015 01:04 10,8 C 10,6 C 9,4 C 98 % 15 lf 1014,9 hPa 0,0 l/m 0 min 2 min 0 W/m 29,3 km/h (5 Bft) 97,83 %
01.12.2015 01:06 10,8 C 10,6 C 9,4 C 98 % 15 lf 1014,9 hPa 0,2 l/m 0 min 2 min 0 W/m 31,4 km/h (5 Bft) 95,74 %
01.12.2015 01:08 10,8 C 10,6 C 9,4 C 98 % 15 lf 1014,9 hPa 0,0 l/m 0 min 2 min 0 W/m 37,7 km/h (5 Bft) 97,87 %
01.12.2015 01:10 10,8 C 10,6 C 9,4 C 98 % 15 lf 1014,9 hPa 0,0 l/m 0 min 2 min 0 W/m 25,1 km/h (4 Bft) 97,87 %
01.12.2015 01:12 10,8 C 10,6 C 9,4 C 98 % 15 lf 1015,0 hPa 0,0 l/m 0 min 2 min 0 W/m 29,3 km/h (5 Bft) 97,87 %
01.12.2015 01:14 10,8 C 10,6 C 9,4 C 98 % 15 lf 1015,0 hPa 0,0 l/m 0 min 2 min 0 W/m 29,3 km/h (5 Bft) 95,65 %
01.12.2015 01:16 10,8 C 10,6 C 9,4 C 98 % 15 lf 1015,0 hPa 0,2 l/m 0 min 2 min 0 W/m 29,3 km/h (5 Bft) 97,87 %
01.12.2015 01:18 10,8 C 10,6 C 9,4 C 98 % 15 lf 1015,0 hPa 0,0 l/m 0 min 2 min 0 W/m 29,3 km/h (5 Bft) 95,74 %
01.12.2015 01:20 10,8 C 10,6 C 9,4 C 98 % 15 lf 1015,0 hPa 0,0 l/m 0 min 2 min 0 W/m 23,0 km/h (4 Bft) 95,74 %
01.12.2015 01:22 10,8 C 10,6 C 9,4 C 98 % 15 lf 1015,1 hPa 0,0 l/m 0 min 2 min 0 W/m 25,1 km/h (4 Bft) 97,87 %
01.12.2015 01:24 10,8 C 10,6 C 9,4 C 98 % 15 lf 1015,1 hPa 0,2 l/m 0 min 2 min 0 W/m 25,1 km/h (4 Bft) 97,87 %
01.12.2015 01:26 10,8 C 10,6 C 9,4 C 98 % 15 lf 1015,1 hPa 0,0 l/m 0 min 2 min 0 W/m 20,9 km/h (4 Bft) 93,48 %
01.12.2015 01:28 10,8 C 10,6 C 9,4 C 98 % 15 lf 1015,1 hPa 0,0 l/m 0 min 2 min 0 W/m 27,2 km/h (4 Bft) 93,62 %
01.12.2015 01:30 10,9 C 10,6 C 9,4 C 98 % 15 lf 1015,1 hPa 0,0 l/m 0 min 2 min 0 W/m 23,0 km/h (4 Bft) 95,74 %
01.12.2015 01:32 10,8 C 10,6 C 9,4 C 98 % 15 lf 1015,1 hPa 0,0 l/m 0 min 2 min 0 W/m 25,1 km/h (4 Bft) 97,87 %
01.12.2015 01:34 10,9 C 10,6 C 9,4 C 98 % 15 lf 1015,1 hPa 0,2 l/m 0 min 2 min 0 W/m 27,2 km/h (4 Bft) 97,87 %
01.12.2015 01:36 10,9 C 10,6 C 9,4 C 98 % 15 lf 1015,2 hPa 0,0 l/m 0 min 2 min 0 W/m 20,9 km/h (4 Bft) 95,74 %
01.12.2015 01:38 10,9 C 10,6 C 9,4 C 98 % 15 lf 1015,2 hPa 0,0 l/m 0 min 2 min 0 W/m 25,1 km/h (4 Bft) 100,00 %
01.12.2015 01:40 10,9 C 10,6 C 9,4 C 98 % 15 lf 1015,3 hPa 0,2 l/m 0 min 2 min 0 W/m 20,9 km/h (4 Bft) 97,87 %
01.12.2015 01:42 10,9 C 10,6 C 9,4 C 98 % 15 lf 1015,3 hPa 0,0 l/m 0 min 2 min 0 W/m 23,0 km/h (4 Bft) 95,74 %
01.12.2015 01:44 10,9 C 10,6 C 9,4 C 98 % 15 lf 1015,4 hPa 0,0 l/m 0 min 2 min 0 W/m 33,5 km/h (5 Bft) 95,74 %
01.12.2015 01:46 10,9 C 10,6 C 9,4 C 98 % 15 lf 1015,4 hPa 0,0 l/m 0 min 2 min 0 W/m 18,8 km/h (3 Bft) 93,62 %
01.12.2015 01:48 10,9 C 10,6 C 9,4 C 98 % 15 lf 1015,4 hPa 0,2 l/m 0 min 2 min 0 W/m 29,3 km/h (5 Bft) 97,87 %
01.12.2015 01:50 10,9 C 10,6 C 9,4 C 98 % 15 lf 1015,4 hPa 0,0 l/m 0 min 2 min 0 W/m 23,0 km/h (4 Bft) 97,83 %
01.12.2015 01:52 10,9 C 10,6 C 9,4 C 98 % 15 lf 1015,4 hPa 0,0 l/m 0 min 2 min 0 W/m 20,9 km/h (4 Bft) 97,87 %
01.12.2015 01:54 10,9 C 11,1 C 9,4 C 98 % 15 lf 1015,4 hPa 0,0 l/m 0 min 2 min 0 W/m 27,2 km/h (4 Bft) 91,49 %
01.12.2015 01:56 10,9 C 11,1 C 9,4 C 98 % 15 lf 1015,5 hPa 0,0 l/m 0 min 2 min 0 W/m 29,3 km/h (5 Bft) 97,87 %
01.12.2015 01:58 10,9 C 11,1 C 9,4 C 98 % 15 lf 1015,5 hPa 0,2 l/m 0 min 2 min 0 W/m 25,1 km/h (4 Bft) 95,74 %
01.12.2015 02:00 10,9 C 11,1 C 9,4 C 98 % 15 lf 1015,5 hPa 0,0 l/m 0 min 2 min 0 W/m 20,9 km/h (4 Bft) 95,74 %
01.12.2015 02:02 10,9 C 11,1 C 9,4 C 98 % 15 lf 1015,6 hPa 0,0 l/m 0 min 2 min 0 W/m 27,2 km/h (4 Bft) 97,83 %
01.12.2015 02:04 10,9 C 11,1 C 9,4 C 98 % 15 lf 1015,6 hPa 0,0 l/m 0 min 2 min 0 W/m 25,1 km/h (4 Bft) 95,74 %
01.12.2015 02:06 10,9 C 11,1 C 9,4 C 98 % 15 lf 1015,7 hPa 0,0 l/m 0 min 2 min 0 W/m 20,9 km/h (4 Bft) 93,62 %
01.12.2015 02:08 10,9 C 11,1 C 9,4 C 98 % 15 lf 1015,9 hPa 0,2 l/m 0 min 2 min 0 W/m 25,1 km/h (4 Bft) 95,74 %
01.12.2015 02:10 10,9 C 11,1 C 9,4 C 98 % 15 lf 1016,1 hPa 0,2 l/m 0 min 2 min 0 W/m 18,8 km/h (3 Bft) 95,74 %
01.12.2015 02:12 10,9 C 11,1 C 9,4 C 98 % 15 lf 1016,2 hPa 0,2 l/m 0 min 2 min 0 W/m 25,1 km/h (4 Bft) 97,83 %
01.12.2015 02:14 11,0 C 11,1 C 9,4 C 98 % 15 lf 1016,3 hPa 0,0 l/m 0 min 2 min 0 W/m 16,7 km/h (3 Bft) 97,87 %
01.12.2015 02:16 11,0 C 11,1 C 9,4 C 98 % 15 lf 1016,3 hPa 0,2 l/m 0 min 2 min 0 W/m 12,6 km/h (3 Bft) 97,87 %
01.12.2015 02:18 11,0 C 11,1 C 9,4 C 98 % 15 lf 1016,3 hPa 0,0 l/m 0 min 2 min 0 W/m 18,8 km/h (3 Bft) 93,62 %
01.12.2015 02:20 11,0 C 11,1 C 9,4 C 99 % 15 lf 1016,4 hPa 0,0 l/m 0 min 2 min 0 W/m 12,6 km/h (3 Bft) 95,74 %
01.12.2015 02:22 11,0 C 11,1 C 9,4 C 99 % 15 lf 1016,4 hPa 0,0 l/m 0 min 2 min 0 W/m 25,1 km/h (4 Bft) 95,74 %
01.12.2015 02:24 11,0 C 11,1 C 9,4 C 99 % 15 lf 1016,3 hPa 0,0 l/m 0 min 2 min 0 W/m 25,1 km/h (4 Bft) 93,48 %
01.12.2015 02:26 11,0 C 11,1 C 9,4 C 99 % 15 lf 1016,3 hPa 0,0 l/m 0 min 0 min 0 W/m 23,0 km/h (4 Bft) 93,62 %
01.12.2015 02:28 11,0 C 10,6 C 9,4 C 99 % 15 lf 1016,3 hPa 0,2 l/m 0 min 0 min 0 W/m 33,5 km/h (5 Bft) 95,74 %
01.12.2015 02:30 10,9 C 10,6 C 9,4 C 99 % 15 lf 1016,4 hPa 0,0 l/m 0 min 0 min 0 W/m 27,2 km/h (4 Bft) 93,62 %
01.12.2015 02:32 10,9 C 10,6 C 9,4 C 99 % 15 lf 1016,3 hPa 0,0 l/m 0 min 0 min 0 W/m 31,4 km/h (5 Bft) 95,74 %
01.12.2015 02:34 10,8 C 10,6 C 9,4 C 99 % 15 lf 1016,5 hPa 0,0 l/m 0 min 0 min 0 W/m 27,2 km/h (4 Bft) 95,74 %
01.12.2015 02:36 10,8 C 10,6 C 9,4 C 99 % 15 lf 1016,6 hPa 0,0 l/m 0 min 0 min 0 W/m 31,4 km/h (5 Bft) 93,62 %
01.12.2015 02:38 10,8 C 10,6 C 9,4 C 99 % 15 lf 1016,7 hPa 0,0 l/m 0 min 0 min 0 W/m 25,1 km/h (4 Bft) 95,65 %
01.12.2015 02:40 10,7 C 10,6 C 9,4 C 99 % 15 lf 1016,8 hPa 0,0 l/m 0 min 2 min 0 W/m 25,1 km/h (4 Bft) 95,74 %
01.12.2015 02:42 10,7 C 10,6 C 9,4 C 99 % 15 lf 1016,9 hPa 0,0 l/m 0 min 2 min 0 W/m 23,0 km/h (4 Bft) 93,62 %
01.12.2015 02:44 10,7 C 10,6 C 8,9 C 99 % 15 lf 1016,9 hPa 0,0 l/m 0 min 2 min 0 W/m 25,1 km/h (4 Bft) 95,74 %
01.12.2015 02:46 10,6 C 10,6 C 8,9 C 98 % 15 lf 1017,0 hPa 0,0 l/m 0 min 0 min 0 W/m 18,8 km/h (3 Bft) 95,74 %
01.12.2015 02:48 10,6 C 10,6 C 8,9 C 98 % 15 lf 1017,0 hPa 0,0 l/m 0 min 0 min 0 W/m 18,8 km/h (3 Bft) 95,65 %
01.12.2015 02:50 10,6 C 10,6 C 8,9 C 98 % 15 lf 1017,0 hPa 0,0 l/m 0 min 2 min 0 W/m 18,8 km/h (3 Bft) 95,74 %
01.12.2015 02:52 10,5 C 10,0 C 8,9 C 98 % 15 lf 1017,1 hPa 0,0 l/m 0 min 2 min 0 W/m 27,2 km/h (4 Bft) 97,87 %
01.12.2015 02:54 10,5 C 10,0 C 8,9 C 98 % 15 lf 1017,1 hPa 0,0 l/m 0 min 0 min 0 W/m 16,7 km/h (3 Bft) 95,74 %
01.12.2015 02:56 10,5 C 10,0 C 8,9 C 98 % 15 lf 1017,1 hPa 0,0 l/m 0 min 0 min 0 W/m 12,6 km/h (3 Bft) 97,87 %
01.12.2015 02:58 10,4 C 10,0 C 8,9 C 99 % 15 lf 1017,0 hPa 0,0 l/m 0 min 0 min 0 W/m 20,9 km/h (4 Bft) 95,74 %
01.12.2015 03:00 10,4 C 10,0 C 8,9 C 99 % 15 lf 1017,0 hPa 0,0 l/m 0 min 2 min 0 W/m 16,7 km/h (3 Bft) 97,83 %
01.12.2015 03:02 10,4 C 10,0 C 8,9 C 99 % 15 lf 1017,0 hPa 0,0 l/m 0 min 2 min 0 W/m 23,0 km/h (4 Bft) 97,87 %
01.12.2015 03:04 10,4 C 10,0 C 8,9 C 99 % 15 lf 1017,1 hPa 0,0 l/m 0 min 2 min 0 W/m 16,7 km/h (3 Bft) 97,87 %
01.12.2015 03:06 10,3 C 10,0 C 8,9 C 99 % 15 lf 1017,1 hPa 0,0 l/m 0 min 0 min 0 W/m 16,7 km/h (3 Bft) 97,87 %
01.12.2015 03:08 10,3 C 10,0 C 8,9 C 99 % 15 lf 1017,2 hPa 0,0 l/m 0 min 0 min 0 W/m 18,8 km/h (3 Bft) 91,30 %
01.12.2015 03:10 10,3 C 10,0 C 8,9 C 99 % 15 lf 1017,2 hPa 0,0 l/m 0 min 0 min 0 W/m 18,8 km/h (3 Bft) 93,62 %
01.12.2015 03:12 10,3 C 10,0 C 8,9 C 99 % 15 lf 1017,2 hPa 0,0 l/m 0 min 0 min 0 W/m 12,6 km/h (3 Bft) 97,83 %
01.12.2015 03:14 10,3 C 10,0 C 8,9 C 98 % 15 lf 1017,2 hPa 0,0 l/m 0 min 0 min 0 W/m 20,9 km/h (4 Bft) 95,74 %
01.12.2015 03:16 10,2 C 10,0 C 8,9 C 98 % 15 lf 1017,2 hPa 0,0 l/m 0 min 0 min 0 W/m 18,8 km/h (3 Bft) 89,36 %
01.12.2015 03:18 10,2 C 10,0 C 8,9 C 98 % 15 lf 1017,3 hPa 0,0 l/m 0 min 0 min 0 W/m 16,7 km/h (3 Bft) 97,87 %
01.12.2015 03:20 10,2 C 10,0 C 8,9 C 98 % 15 lf 1017,3 hPa 0,0 l/m 0 min 0 min 0 W/m 12,6 km/h (3 Bft) 95,74 %
01.12.2015 03:22 10,2 C 10,0 C 8,9 C 98 % 15 lf 1017,3 hPa 0,0 l/m 0 min 0 min 0 W/m 14,6 km/h (3 Bft) 97,83 %
01.12.2015 03:24 10,2 C 10,0 C 8,9 C 98 % 15 lf 1017,5 hPa 0,0 l/m 0 min 2 min 0 W/m 10,5 km/h (2 Bft) 95,74 %
01.12.2015 03:26 10,2 C 10,0 C 8,9 C 98 % 15 lf 1017,4 hPa 0,0 l/m 0 min 2 min 0 W/m 10,5 km/h (2 Bft) 93,62 %
01.12.2015 03:28 10,2 C 10,0 C 8,9 C 98 % 15 lf 1017,6 hPa 0,0 l/m 0 min 2 min 0 W/m 14,6 km/h (3 Bft) 97,87 %
01.12.2015 03:30 10,2 C 10,0 C 8,9 C 99 % 15 lf 1017,6 hPa 0,0 l/m 0 min 2 min 0 W/m 16,7 km/h (3 Bft) 93,62 %
01.12.2015 03:32 10,1 C 10,0 C 8,9 C 99 % 15 lf 1017,7 hPa 0,0 l/m 0 min 2 min 0 W/m 25,1 km/h (4 Bft) 100,00 %
01.12.2015 03:34 10,1 C 9,4 C 8,3 C 99 % 15 lf 1017,6 hPa 0,0 l/m 0 min 2 min 0 W/m 29,3 km/h (5 Bft) 100,00 %
01.12.2015 03:36 10,0 C 9,4 C 8,3 C 99 % 15 lf 1017,7 hPa 0,0 l/m 0 min 2 min 0 W/m 25,1 km/h (4 Bft) 95,65 %
01.12.2015 03:38 9,9 C 9,4 C 8,3 C 98 % 15 lf 1017,7 hPa 0,2 l/m 0 min 2 min 0 W/m 23,0 km/h (4 Bft) 97,87 %
01.12.2015 03:40 9,8 C 9,4 C 8,3 C 98 % 15 lf 1017,7 hPa 0,0 l/m 0 min 2 min 0 W/m 20,9 km/h (4 Bft) 95,74 %
01.12.2015 03:42 9,8 C 8,9 C 7,8 C 98 % 15 lf 1017,7 hPa 0,0 l/m 0 min 2 min 0 W/m 29,3 km/h (5 Bft) 97,87 %
01.12.2015 03:44 9,7 C 8,9 C 7,8 C 98 % 15 lf 1017,8 hPa 0,0 l/m 0 min 2 min 0 W/m 25,1 km/h (4 Bft) 97,87 %
01.12.2015 03:46 9,6 C 8,9 C 7,8 C 98 % 15 lf 1017,7 hPa 0,0 l/m 0 min 2 min 0 W/m 23,0 km/h (4 Bft) 97,83 %
01.12.2015 03:48 9,4 C 8,9 C 7,8 C 98 % 15 lf 1017,8 hPa 0,0 l/m 0 min 2 min 0 W/m 18,8 km/h (3 Bft) 97,87 %
01.12.2015 03:50 9,4 C 8,9 C 7,8 C 98 % 15 lf 1017,8 hPa 0,2 l/m 0 min 2 min 0 W/m 27,2 km/h (4 Bft) 93,62 %
01.12.2015 03:52 9,3 C 8,9 C 7,8 C 98 % 15 lf 1017,9 hPa 0,0 l/m 0 min 2 min 0 W/m 20,9 km/h (4 Bft) 95,74 %
01.12.2015 03:54 9,2 C 8,3 C 7,8 C 98 % 15 lf 1017,9 hPa 0,0 l/m 0 min 2 min 0 W/m 20,9 km/h (4 Bft) 97,87 %
01.12.2015 03:56 9,1 C 8,3 C 7,2 C 98 % 15 lf 1017,9 hPa 0,0 l/m 0 min 2 min 0 W/m 25,1 km/h (4 Bft) 97,87 %
01.12.2015 03:58 9,1 C 8,3 C 7,2 C 98 % 15 lf 1018,0 hPa 0,0 l/m 0 min 2 min 0 W/m 18,8 km/h (3 Bft) 95,65 %
01.12.2015 04:00 9,0 C 8,3 C 7,2 C 98 % 15 lf 1018,0 hPa 0,0 l/m 0 min 2 min 0 W/m 18,8 km/h (3 Bft) 93,62 %
01.12.2015 04:02 8,9 C 8,3 C 7,2 C 98 % 15 lf 1018,0 hPa 0,0 l/m 0 min 2 min 0 W/m 18,8 km/h (3 Bft) 100,00 %
01.12.2015 04:04 8,9 C 8,3 C 7,2 C 98 % 15 lf 1018,1 hPa 0,0 l/m 0 min 2 min 0 W/m 16,7 km/h (3 Bft) 93,62 %
01.12.2015 04:06 8,9 C 8,3 C 7,2 C 98 % 15 lf 1018,2 hPa 0,0 l/m 0 min 0 min 0 W/m 16,7 km/h (3 Bft) 93,62 %
01.12.2015 04:08 8,8 C 8,3 C 7,2 C 98 % 15 lf 1018,1 hPa 0,0 l/m 0 min 0 min 0 W/m 16,7 km/h (3 Bft) 95,74 %
01.12.2015 04:10 8,8 C 8,3 C 7,2 C 98 % 15 lf 1018,1 hPa 0,0 l/m 0 min 2 min 0 W/m 16,7 km/h (3 Bft) 95,65 %
01.12.2015 04:12 8,8 C 8,3 C 7,2 C 98 % 15 lf 1018,1 hPa 0,0 l/m 0 min 0 min 0 W/m 14,6 km/h (3 Bft) 97,87 %
01.12.2015 04:14 8,7 C 8,3 C 7,2 C 98 % 15 lf 1018,0 hPa 0,0 l/m 0 min 0 min 0 W/m 18,8 km/h (3 Bft) 95,74 %
01.12.2015 04:16 8,7 C 8,3 C 7,2 C 98 % 15 lf 1018,0 hPa 0,0 l/m 0 min 0 min 0 W/m 14,6 km/h (3 Bft) 95,74 %
01.12.2015 04:18 8,7 C 8,3 C 7,2 C 98 % 15 lf 1018,1 hPa 0,0 l/m 0 min 0 min 0 W/m 14,6 km/h (3 Bft) 93,62 %
01.12.2015 04:20 8,7 C 8,3 C 7,2 C 98 % 15 lf 1018,1 hPa 0,0 l/m 0 min 0 min 0 W/m 18,8 km/h (3 Bft) 95,74 %
01.12.2015 04:22 8,6 C 8,3 C 7,2 C 98 % 15 lf 1018,2 hPa 0,0 l/m 0 min 2 min 0 W/m 12,6 km/h (3 Bft) 93,48 %
01.12.2015 04:24 8,6 C 8,3 C 7,2 C 98 % 15 lf 1018,1 hPa 0,0 l/m 0 min 0 min 0 W/m 12,6 km/h (3 Bft) 91,49 %
01.12.2015 04:26 8,6 C 8,3 C 7,2 C 98 % 15 lf 1018,2 hPa 0,0 l/m 0 min 2 min 0 W/m 10,5 km/h (2 Bft) 95,74 %
01.12.2015 04:28 8,6 C 8,3 C 7,2 C 98 % 15 lf 1018,2 hPa 0,0 l/m 0 min 0 min 0 W/m 12,6 km/h (3 Bft) 91,49 %
01.12.2015 04:30 8,6 C 8,3 C 7,2 C 98 % 15 lf 1018,4 hPa 0,0 l/m 0 min 2 min 0 W/m 12,6 km/h (3 Bft) 93,62 %
01.12.2015 04:32 8,5 C 8,3 C 7,2 C 98 % 15 lf 1018,4 hPa 0,0 l/m 0 min 2 min 0 W/m 10,5 km/h (2 Bft) 93,62 %
01.12.2015 04:34 8,5 C 8,3 C 7,2 C 98 % 15 lf 1018,6 hPa 0,0 l/m 0 min 2 min 0 W/m 12,6 km/h (3 Bft) 95,65 %
01.12.2015 04:36 8,5 C 8,3 C 7,2 C 98 % 15 lf 1018,5 hPa 0,0 l/m 0 min 2 min 0 W/m 10,5 km/h (2 Bft) 93,62 %
01.12.2015 04:38 8,5 C 8,3 C 7,2 C 98 % 15 lf 1018,6 hPa 0,0 l/m 0 min 2 min 0 W/m 12,6 km/h (3 Bft) 95,74 %
01.12.2015 04:40 8,5 C 8,3 C 7,2 C 98 % 15 lf 1018,5 hPa 0,0 l/m 0 min 2 min 0 W/m 14,6 km/h (3 Bft) 93,62 %
01.12.2015 04:42 8,5 C 8,3 C 7,2 C 98 % 15 lf 1018,5 hPa 0,2 l/m 0 min 2 min 0 W/m 8,4 km/h (2 Bft) 95,74 %
01.12.2015 04:44 8,4 C 8,3 C 7,2 C 98 % 15 lf 1018,6 hPa 0,0 l/m 0 min 2 min 0 W/m 6,3 km/h (2 Bft) 87,23 %
01.12.2015 04:46 8,4 C 8,3 C 7,2 C 98 % 15 lf 1018,5 hPa 0,0 l/m 0 min 2 min 0 W/m 12,6 km/h (3 Bft) 95,65 %
01.12.2015 04:48 8,4 C 8,3 C 7,2 C 98 % 15 lf 1018,6 hPa 0,0 l/m 0 min 2 min 0 W/m 10,5 km/h (2 Bft) 97,87 %
01.12.2015 04:50 8,4 C 8,3 C 7,2 C 98 % 15 lf 1018,6 hPa 0,0 l/m 0 min 2 min 0 W/m 10,5 km/h (2 Bft) 95,74 %
01.12.2015 04:52 8,4 C 8,3 C 7,2 C 98 % 15 lf 1018,7 hPa 0,0 l/m 0 min 2 min 0 W/m 10,5 km/h (2 Bft) 93,62 %
01.12.2015 04:54 8,4 C 8,3 C 7,2 C 98 % 15 lf 1018,7 hPa 0,0 l/m 0 min 2 min 0 W/m 8,4 km/h (2 Bft) 97,87 %
01.12.2015 04:56 8,4 C 8,3 C 7,2 C 98 % 15 lf 1018,8 hPa 0,0 l/m 0 min 2 min 0 W/m 12,6 km/h (3 Bft) 97,83 %
01.12.2015 04:58 8,4 C 8,3 C 7,2 C 98 % 15 lf 1018,9 hPa 0,0 l/m 0 min 2 min 0 W/m 10,5 km/h (2 Bft) 97,87 %
01.12.2015 05:00 8,4 C 8,3 C 7,2 C 98 % 15 lf 1018,9 hPa 0,0 l/m 0 min 0 min 0 W/m 8,4 km/h (2 Bft) 97,87 %
01.12.2015 05:02 8,4 C 8,3 C 7,2 C 98 % 15 lf 1019,0 hPa 0,0 l/m 0 min 2 min 0 W/m 8,4 km/h (2 Bft) 95,74 %
01.12.2015 05:04 8,4 C 8,3 C 7,2 C 98 % 15 lf 1019,1 hPa 0,0 l/m 0 min 2 min 0 W/m 6,3 km/h (2 Bft) 95,74 %
01.12.2015 05:06 8,4 C 8,3 C 7,2 C 98 % 15 lf 1019,2 hPa 0,0 l/m 0 min 2 min 0 W/m 8,4 km/h (2 Bft) 97,87 %
01.12.2015 05:08 8,4 C 8,3 C 7,2 C 98 % 15 lf 1019,2 hPa 0,0 l/m 0 min 2 min 0 W/m 10,5 km/h (2 Bft) 97,83 %
01.12.2015 05:10 8,4 C 8,3 C 7,2 C 98 % 15 lf 1019,3 hPa 0,0 l/m 0 min 2 min 0 W/m 10,5 km/h (2 Bft) 95,74 %
01.12.2015 05:12 8,4 C 8,3 C 7,2 C 98 % 15 lf 1019,4 hPa 0,0 l/m 0 min 2 min 0 W/m 6,3 km/h (2 Bft) 93,62 %
01.12.2015 05:14 8,4 C 8,3 C 7,2 C 98 % 15 lf 1019,4 hPa 0,0 l/m 0 min 2 min 0 W/m 8,4 km/h (2 Bft) 95,74 %
01.12.2015 05:16 8,4 C 8,3 C 7,2 C 98 % 15 lf 1019,4 hPa 0,0 l/m 0 min 2 min 0 W/m 6,3 km/h (2 Bft) 97,87 %
01.12.2015 05:18 8,4 C 8,3 C 7,2 C 98 % 15 lf 1019,4 hPa 0,0 l/m 0 min 2 min 0 W/m 10,5 km/h (2 Bft) 91,49 %
01.12.2015 05:20 8,4 C 8,3 C 7,2 C 98 % 15 lf 1019,4 hPa 0,0 l/m 0 min 2 min 0 W/m 4,2 km/h (1 Bft) 100,00 %
01.12.2015 05:22 8,4 C 8,3 C 7,2 C 98 % 15 lf 1019,5 hPa 0,2 l/m 0 min 2 min 0 W/m 8,4 km/h (2 Bft) 100,00 %
01.12.2015 05:24 8,4 C 8,3 C 7,2 C 98 % 15 lf 1019,6 hPa 0,0 l/m 0 min 2 min 0 W/m 8,4 km/h (2 Bft) 100,00 %
01.12.2015 05:26 8,4 C 8,3 C 7,2 C 98 % 15 lf 1019,6 hPa 0,0 l/m 0 min 2 min 0 W/m 12,6 km/h (3 Bft) 95,74 %
01.12.2015 05:28 8,4 C 8,3 C 7,2 C 98 % 15 lf 1019,7 hPa 0,2 l/m 0 min 2 min 0 W/m 18,8 km/h (3 Bft) 100,00 %
01.12.2015 05:30 8,4 C 7,8 C 6,7 C 98 % 15 lf 1019,8 hPa 0,0 l/m 0 min 2 min 0 W/m 16,7 km/h (3 Bft) 97,87 %
01.12.2015 05:32 8,3 C 7,8 C 6,7 C 98 % 15 lf 1019,8 hPa 0,0 l/m 0 min 2 min 0 W/m 14,6 km/h (3 Bft) 100,00 %
01.12.2015 05:34 8,3 C 7,8 C 6,7 C 98 % 15 lf 1019,8 hPa 0,0 l/m 0 min 2 min 0 W/m 10,5 km/h (2 Bft) 100,00 %
01.12.2015 05:36 8,2 C 7,8 C 6,7 C 98 % 15 lf 1019,9 hPa 0,0 l/m 0 min 2 min 0 W/m 8,4 km/h (2 Bft) 97,87 %
01.12.2015 05:38 8,2 C 7,8 C 6,7 C 98 % 15 lf 1019,9 hPa 0,0 l/m 0 min 2 min 0 W/m 10,5 km/h (2 Bft) 100,00 %
01.12.2015 05:40 8,2 C 7,8 C 6,7 C 98 % 15 lf 1019,9 hPa 0,0 l/m 0 min 2 min 0 W/m 10,5 km/h (2 Bft) 97,87 %
01.12.2015 05:42 8,1 C 7,8 C 6,7 C 98 % 15 lf 1020,0 hPa 0,2 l/m 0 min 2 min 0 W/m 12,6 km/h (3 Bft) 100,00 %
01.12.2015 05:44 8,1 C 7,8 C 6,7 C 98 % 15 lf 1020,1 hPa 0,0 l/m 0 min 2 min 0 W/m 10,5 km/h (2 Bft) 100,00 %
01.12.2015 05:46 8,1 C 7,8 C 6,7 C 98 % 15 lf 1020,2 hPa 0,0 l/m 0 min 2 min 0 W/m 10,5 km/h (2 Bft) 97,87 %
01.12.2015 05:48 8,0 C 7,8 C 6,7 C 98 % 15 lf 1020,3 hPa 0,0 l/m 0 min 2 min 0 W/m 6,3 km/h (2 Bft) 97,87 %
01.12.2015 05:50 8,0 C 7,8 C 6,7 C 98 % 15 lf 1020,4 hPa 0,0 l/m 0 min 2 min 0 W/m 10,5 km/h (2 Bft) 97,87 %
01.12.2015 05:52 7,9 C 7,8 C 6,7 C 98 % 15 lf 1020,4 hPa 0,0 l/m 0 min 2 min 0 W/m 10,5 km/h (2 Bft) 93,62 %
01.12.2015 05:54 7,9 C 7,8 C 6,7 C 98 % 15 lf 1020,4 hPa 0,0 l/m 0 min 2 min 0 W/m 10,5 km/h (2 Bft) 100,00 %
01.12.2015 05:56 7,9 C 7,8 C 6,7 C 98 % 15 lf 1020,4 hPa 0,2 l/m 0 min 2 min 0 W/m 8,4 km/h (2 Bft) 100,00 %
01.12.2015 05:58 7,9 C 7,8 C 6,7 C 98 % 15 lf 1020,4 hPa 0,0 l/m 0 min 2 min 0 W/m 8,4 km/h (2 Bft) 100,00 %
01.12.2015 06:00 7,9 C 7,8 C 6,7 C 98 % 15 lf 1020,4 hPa 0,0 l/m 0 min 2 min 0 W/m 6,3 km/h (2 Bft) 97,87 %
01.12.2015 06:02 7,8 C 7,8 C 6,7 C 98 % 15 lf 1020,4 hPa 0,0 l/m 0 min 2 min 0 W/m 6,3 km/h (2 Bft) 95,74 %
01.12.2015 06:04 7,8 C 7,8 C 6,7 C 98 % 15 lf 1020,4 hPa 0,0 l/m 0 min 2 min 0 W/m 4,2 km/h (1 Bft) 100,00 %
01.12.2015 06:06 7,8 C 7,2 C 6,7 C 98 % 15 lf 1020,4 hPa 0,0 l/m 0 min 2 min 0 W/m 6,3 km/h (2 Bft) 97,83 %
01.12.2015 06:08 7,8 C 7,2 C 6,7 C 98 % 15 lf 1020,5 hPa 0,0 l/m 0 min 2 min 0 W/m 2,1 km/h (1 Bft) 97,87 %
01.12.2015 06:10 7,8 C 7,2 C 6,7 C 98 % 15 lf 1020,5 hPa 0,0 l/m 0 min 2 min 0 W/m 2,1 km/h (1 Bft) 95,74 %
01.12.2015 06:12 7,8 C 7,2 C 6,7 C 98 % 15 lf 1020,5 hPa 0,0 l/m 0 min 2 min 0 W/m 4,2 km/h (1 Bft) 97,87 %
01.12.2015 06:14 7,7 C 7,2 C 6,7 C 98 % 15 lf 1020,5 hPa 0,0 l/m 0 min 2 min 0 W/m 2,1 km/h (1 Bft) 93,62 %
01.12.2015 06:16 7,7 C 7,2 C 6,7 C 98 % 15 lf 1020,5 hPa 0,0 l/m 0 min 2 min 0 W/m 0,0 km/h (0 Bft) 93,62 %
01.12.2015 06:18 7,7 C 7,2 C 6,7 C 98 % 15 lf 1020,6 hPa 0,0 l/m 0 min 2 min 0 W/m 2,1 km/h (1 Bft) 95,56 %
01.12.2015 06:20 7,7 C 7,2 C 6,7 C 98 % 15 lf 1020,6 hPa 0,0 l/m 0 min 0 min 0 W/m 0,0 km/h (0 Bft) 93,62 %
01.12.2015 06:22 7,7 C 7,8 C 6,7 C 98 % 15 lf 1020,7 hPa 0,0 l/m 0 min 0 min 0 W/m 0,0 km/h (0 Bft) 95,74 %
01.12.2015 06:24 7,7 C 7,2 C 6,7 C 98 % 15 lf 1020,7 hPa 0,0 l/m 0 min 2 min 0 W/m 0,0 km/h (0 Bft) 95,74 %
01.12.2015 06:26 7,7 C 7,8 C 6,7 C 98 % 15 lf 1020,8 hPa 0,0 l/m 0 min 2 min 0 W/m 0,0 km/h (0 Bft) 97,87 %
01.12.2015 06:28 7,7 C 7,8 C 6,7 C 98 % 15 lf 1020,8 hPa 0,0 l/m 0 min 2 min 0 W/m 0,0 km/h (0 Bft) 93,62 %
01.12.2015 06:30 7,7 C 7,8 C 6,7 C 98 % 15 lf 1020,9 hPa 0,2 l/m 0 min 2 min 0 W/m 0,0 km/h (0 Bft) 93,48 %
01.12.2015 06:32 7,7 C 7,8 C 6,7 C 98 % 15 lf 1021,0 hPa 0,0 l/m 0 min 2 min 0 W/m 2,1 km/h (1 Bft) 95,74 %
01.12.2015 06:34 7,7 C 7,8 C 6,7 C 98 % 15 lf 1021,0 hPa 0,0 l/m 0 min 2 min 0 W/m 2,1 km/h (1 Bft) 95,74 %
01.12.2015 06:36 7,7 C 7,8 C 6,7 C 98 % 15 lf 1020,9 hPa 0,0 l/m 0 min 2 min 0 W/m 0,0 km/h (0 Bft) 95,74 %
01.12.2015 06:38 7,7 C 7,8 C 6,7 C 98 % 15 lf 1020,9 hPa 0,0 l/m 0 min 2 min 0 W/m 0,0 km/h (0 Bft) 93,62 %
01.12.2015 06:40 7,7 C 7,8 C 6,7 C 98 % 15 lf 1020,9 hPa 0,0 l/m 0 min 2 min 0 W/m 0,0 km/h (0 Bft) 97,87 %
01.12.2015 06:42 7,7 C 7,8 C 6,7 C 98 % 15 lf 1020,9 hPa 0,0 l/m 0 min 2 min 0 W/m 0,0 km/h (0 Bft) 91,30 %
01.12.2015 06:44 7,6 C 7,8 C 6,7 C 98 % 15 lf 1021,0 hPa 0,0 l/m 0 min 2 min 0 W/m 2,1 km/h (1 Bft) 93,62 %
01.12.2015 06:46 7,6 C 7,8 C 6,7 C 98 % 15 lf 1021,1 hPa 0,0 l/m 0 min 2 min 0 W/m 4,2 km/h (1 Bft) 95,74 %
01.12.2015 06:48 7,6 C 7,8 C 6,7 C 98 % 15 lf 1021,0 hPa 0,0 l/m 0 min 2 min 0 W/m 2,1 km/h (1 Bft) 95,74 %
01.12.2015 06:50 7,6 C 7,2 C 6,7 C 98 % 15 lf 1021,0 hPa 0,0 l/m 0 min 2 min 0 W/m 4,2 km/h (1 Bft) 95,74 %
01.12.2015 06:52 7,6 C 7,2 C 6,7 C 98 % 15 lf 1021,1 hPa 0,0 l/m 0 min 2 min 0 W/m 4,2 km/h (1 Bft) 93,62 %
01.12.2015 06:54 7,6 C 7,2 C 6,7 C 98 % 15 lf 1021,0 hPa 0,0 l/m 0 min 2 min 0 W/m 2,1 km/h (1 Bft) 95,65 %
01.12.2015 06:56 7,6 C 7,2 C 6,7 C 98 % 15 lf 1021,1 hPa 0,0 l/m 0 min 2 min 0 W/m 4,2 km/h (1 Bft) 95,74 %
01.12.2015 06:58 7,6 C 7,2 C 6,7 C 98 % 15 lf 1021,2 hPa 0,2 l/m 0 min 2 min 0 W/m 4,2 km/h (1 Bft) 93,62 %
01.12.2015 07:00 7,6 C 7,2 C 6,7 C 98 % 15 lf 1021,2 hPa 0,0 l/m 0 min 2 min 0 W/m 4,2 km/h (1 Bft) 89,36 %
01.12.2015 07:02 7,6 C 7,2 C 6,7 C 98 % 15 lf 1021,2 hPa 0,0 l/m 0 min 2 min 0 W/m 4,2 km/h (1 Bft) 93,62 %
01.12.2015 07:04 7,6 C 7,2 C 6,7 C 98 % 15 lf 1021,2 hPa 0,0 l/m 0 min 2 min 0 W/m 4,2 km/h (1 Bft) 95,65 %
01.12.2015 07:06 7,6 C 7,2 C 6,7 C 98 % 15 lf 1021,2 hPa 0,0 l/m 0 min 2 min 0 W/m 4,2 km/h (1 Bft) 95,74 %
01.12.2015 07:08 7,6 C 7,2 C 6,7 C 98 % 15 lf 1021,1 hPa 0,0 l/m 0 min 2 min 0 W/m 4,2 km/h (1 Bft) 93,62 %
01.12.2015 07:10 7,6 C 7,2 C 6,7 C 98 % 15 lf 1021,1 hPa 0,0 l/m 0 min 2 min 0 W/m 2,1 km/h (1 Bft) 93,62 %
01.12.2015 07:12 7,6 C 7,2 C 6,7 C 98 % 15 lf 1021,1 hPa 0,0 l/m 0 min 2 min 0 W/m 2,1 km/h (1 Bft) 93,62 %
01.12.2015 07:14 7,6 C 7,2 C 6,7 C 98 % 15 lf 1021,2 hPa 0,0 l/m 0 min 2 min 0 W/m 4,2 km/h (1 Bft) 93,62 %
01.12.2015 07:16 7,6 C 7,2 C 6,7 C 98 % 15 lf 1021,2 hPa 0,0 l/m 0 min 2 min 0 W/m 2,1 km/h (1 Bft) 93,48 %
01.12.2015 07:18 7,6 C 7,2 C 6,7 C 98 % 15 lf 1021,2 hPa 0,0 l/m 0 min 0 min 0 W/m 4,2 km/h (1 Bft) 89,36 %
01.12.2015 07:20 7,6 C 7,2 C 6,1 C 98 % 15 lf 1021,3 hPa 0,0 l/m 0 min 2 min 0 W/m 4,2 km/h (1 Bft) 93,62 %
01.12.2015 07:22 7,5 C 7,2 C 6,1 C 98 % 15 lf 1021,3 hPa 0,0 l/m 0 min 2 min 0 W/m 2,1 km/h (1 Bft) 93,62 %
01.12.2015 07:24 7,5 C 7,2 C 6,7 C 98 % 15 lf 1021,3 hPa 0,0 l/m 0 min 2 min 0 W/m 4,2 km/h (1 Bft) 91,49 %
01.12.2015 07:26 7,5 C 7,2 C 6,7 C 98 % 15 lf 1021,3 hPa 0,0 l/m 0 min 0 min 0 W/m 4,2 km/h (1 Bft) 91,49 %
01.12.2015 07:28 7,5 C 7,2 C 6,7 C 98 % 15 lf 1021,4 hPa 0,0 l/m 0 min 0 min 0 W/m 6,3 km/h (2 Bft) 95,65 %
01.12.2015 07:30 7,5 C 7,2 C 6,7 C 98 % 15 lf 1021,3 hPa 0,0 l/m 0 min 2 min 0 W/m 8,4 km/h (2 Bft) 95,74 %
01.12.2015 07:32 7,5 C 7,2 C 6,7 C 98 % 15 lf 1021,4 hPa 0,0 l/m 0 min 2 min 0 W/m 4,2 km/h (1 Bft) 95,74 %
01.12.2015 07:34 7,5 C 7,2 C 6,7 C 98 % 15 lf 1021,4 hPa 0,0 l/m 0 min 0 min 0 W/m 2,1 km/h (1 Bft) 93,62 %
01.12.2015 07:36 7,5 C 7,2 C 6,7 C 98 % 15 lf 1021,4 hPa 0,0 l/m 0 min 2 min 0 W/m 4,2 km/h (1 Bft) 95,74 %
01.12.2015 07:38 7,5 C 7,2 C 6,7 C 98 % 15 lf 1021,4 hPa 0,0 l/m 0 min 2 min 0 W/m 4,2 km/h (1 Bft) 93,62 %
01.12.2015 07:40 7,5 C 7,2 C 6,7 C 98 % 15 lf 1021,4 hPa 0,0 l/m 0 min 2 min 0 W/m 4,2 km/h (1 Bft) 95,65 %
01.12.2015 07:42 7,4 C 7,2 C 6,7 C 98 % 15 lf 1021,4 hPa 0,0 l/m 0 min 2 min 0 W/m 4,2 km/h (1 Bft) 89,36 %
01.12.2015 07:44 7,4 C 7,2 C 6,7 C 98 % 15 lf 1021,4 hPa 0,0 l/m 0 min 2 min 0 W/m 6,3 km/h (2 Bft) 95,74 %
01.12.2015 07:46 7,4 C 7,2 C 6,7 C 98 % 15 lf 1021,4 hPa 0,2 l/m 0 min 2 min 0 W/m 6,3 km/h (2 Bft) 95,74 %
01.12.2015 07:48 7,4 C 7,2 C 6,7 C 98 % 15 lf 1021,4 hPa 0,0 l/m 0 min 2 min 0 W/m 4,2 km/h (1 Bft) 97,87 %
01.12.2015 07:50 7,4 C 7,2 C 6,7 C 98 % 15 lf 1021,6 hPa 0,0 l/m 0 min 2 min 0 W/m 8,4 km/h (2 Bft) 91,49 %
01.12.2015 07:52 7,4 C 7,2 C 6,7 C 98 % 15 lf 1021,4 hPa 0,0 l/m 0 min 2 min 0 W/m 8,4 km/h (2 Bft) 95,65 %
01.12.2015 07:54 7,4 C 7,2 C 6,1 C 98 % 15 lf 1021,5 hPa 0,0 l/m 0 min 2 min 0 W/m 8,4 km/h (2 Bft) 95,74 %
01.12.2015 07:56 7,4 C 7,2 C 6,1 C 98 % 15 lf 1021,5 hPa 0,0 l/m 0 min 2 min 0 W/m 6,3 km/h (2 Bft) 97,87 %
01.12.2015 07:58 7,4 C 7,2 C 6,1 C 98 % 15 lf 1021,5 hPa 0,0 l/m 0 min 2 min 0 W/m 4,2 km/h (1 Bft) 95,74 %
01.12.2015 08:00 7,4 C 7,2 C 6,1 C 98 % 15 lf 1021,5 hPa 0,0 l/m 0 min 2 min 0 W/m 4,2 km/h (1 Bft) 93,62 %
01.12.2015 08:02 7,4 C 7,2 C 6,1 C 98 % 15 lf 1021,6 hPa 0,0 l/m 0 min 2 min 0 W/m 2,1 km/h (1 Bft) 95,74 %
01.12.2015 08:04 7,4 C 7,2 C 6,1 C 98 % 15 lf 1021,7 hPa 0,0 l/m 0 min 2 min 0 W/m 4,2 km/h (1 Bft) 95,65 %
01.12.2015 08:06 7,4 C 7,2 C 6,7 C 98 % 15 lf 1021,8 hPa 0,0 l/m 0 min 2 min 0 W/m 4,2 km/h (1 Bft) 95,74 %
01.12.2015 08:08 7,4 C 7,2 C 6,1 C 98 % 15 lf 1021,8 hPa 0,0 l/m 0 min 2 min 0 W/m 4,2 km/h (1 Bft) 95,74 %
01.12.2015 08:10 7,4 C 7,2 C 6,1 C 98 % 15 lf 1021,8 hPa 0,2 l/m 0 min 2 min 0 W/m 4,2 km/h (1 Bft) 95,74 %
01.12.2015 08:12 7,4 C 7,2 C 6,1 C 98 % 15 lf 1021,8 hPa 0,0 l/m 0 min 2 min 0 W/m 2,1 km/h (1 Bft) 97,87 %
01.12.2015 08:14 7,4 C 7,2 C 6,1 C 98 % 15 lf 1021,8 hPa 0,0 l/m 0 min 2 min 0 W/m 2,1 km/h (1 Bft) 97,87 %
01.12.2015 08:16 7,4 C 7,2 C 6,1 C 98 % 15 lf 1021,8 hPa 0,0 l/m 0 min 2 min 0 W/m 2,1 km/h (1 Bft) 100,00 %
01.12.2015 08:18 7,4 C 7,2 C 6,1 C 98 % 15 lf 1021,8 hPa 0,0 l/m 0 min 2 min 0 W/m 4,2 km/h (1 Bft) 93,62 %
01.12.2015 08:20 7,4 C 7,2 C 6,1 C 98 % 15 lf 1021,8 hPa 0,2 l/m 0 min 2 min 0 W/m 4,2 km/h (1 Bft) 97,87 %
01.12.2015 08:22 7,4 C 7,2 C 6,1 C 98 % 15 lf 1021,9 hPa 0,0 l/m 0 min 2 min 0 W/m 4,2 km/h (1 Bft) 95,74 %
01.12.2015 08:24 7,4 C 7,2 C 6,1 C 98 % 15 lf 1022,0 hPa 0,2 l/m 0 min 2 min 0 W/m 0,0 km/h (0 Bft) 93,62 %
01.12.2015 08:26 7,4 C 7,2 C 6,1 C 98 % 15 lf 1021,9 hPa 0,0 l/m 0 min 2 min 3 W/m 0,0 km/h (0 Bft) 95,65 %
01.12.2015 08:28 7,4 C 7,2 C 6,1 C 98 % 15 lf 1021,9 hPa 0,0 l/m 0 min 2 min 5 W/m 6,3 km/h (2 Bft) 100,00 %
01.12.2015 08:30 7,3 C 7,2 C 6,1 C 98 % 15 lf 1021,9 hPa 0,0 l/m 0 min 2 min 5 W/m 4,2 km/h (1 Bft) 100,00 %
01.12.2015 08:32 7,4 C 7,2 C 6,1 C 98 % 15 lf 1021,9 hPa 0,2 l/m 0 min 2 min 7 W/m 6,3 km/h (2 Bft) 100,00 %
01.12.2015 08:34 7,4 C 7,2 C 6,1 C 98 % 15 lf 1022,0 hPa 0,0 l/m 0 min 2 min 7 W/m 4,2 km/h (1 Bft) 97,87 %
01.12.2015 08:36 7,4 C 7,2 C 6,1 C 98 % 15 lf 1022,0 hPa 0,0 l/m 0 min 2 min 7 W/m 4,2 km/h (1 Bft) 100,00 %
01.12.2015 08:38 7,3 C 7,2 C 6,1 C 98 % 15 lf 1022,0 hPa 0,0 l/m 0 min 2 min 7 W/m 2,1 km/h (1 Bft) 100,00 %
01.12.2015 08:40 7,3 C 7,2 C 6,1 C 98 % 15 lf 1022,0 hPa 0,0 l/m 0 min 2 min 7 W/m 4,2 km/h (1 Bft) 95,74 %
01.12.2015 08:42 7,3 C 7,2 C 6,1 C 98 % 15 lf 1022,1 hPa 0,0 l/m 0 min 2 min 7 W/m 4,2 km/h (1 Bft) 95,74 %
01.12.2015 08:44 7,3 C 7,2 C 6,1 C 98 % 15 lf 1022,1 hPa 0,2 l/m 0 min 2 min 6 W/m 4,2 km/h (1 Bft) 100,00 %
01.12.2015 08:46 7,4 C 7,2 C 6,1 C 98 % 15 lf 1022,1 hPa 0,0 l/m 0 min 2 min 5 W/m 4,2 km/h (1 Bft) 100,00 %
01.12.2015 08:48 7,3 C 7,2 C 6,1 C 98 % 15 lf 1022,1 hPa 0,0 l/m 0 min 2 min 7 W/m 2,1 km/h (1 Bft) 100,00 %
01.12.2015 08:50 7,3 C 7,2 C 6,1 C 98 % 15 lf 1022,1 hPa 0,0 l/m 0 min 2 min 7 W/m 4,2 km/h (1 Bft) 97,83 %
01.12.2015 08:52 7,3 C 7,2 C 6,1 C 98 % 15 lf 1022,0 hPa 0,0 l/m 0 min 2 min 8 W/m 4,2 km/h (1 Bft) 100,00 %
01.12.2015 08:54 7,3 C 7,2 C 6,1 C 98 % 15 lf 1022,0 hPa 0,0 l/m 0 min 2 min 9 W/m 4,2 km/h (1 Bft) 100,00 %
01.12.2015 08:56 7,3 C 7,2 C 6,1 C 98 % 15 lf 1022,0 hPa 0,0 l/m 0 min 2 min 10 W/m 4,2 km/h (1 Bft) 100,00 %
01.12.2015 08:58 7,3 C 7,2 C 6,1 C 98 % 15 lf 1022,0 hPa 0,0 l/m 0 min 2 min 11 W/m 4,2 km/h (1 Bft) 95,74 %
01.12.2015 09:00 7,3 C 7,2 C 6,1 C 98 % 15 lf 1022,1 hPa 0,2 l/m 0 min 2 min 11 W/m 4,2 km/h (1 Bft) 97,87 %
01.12.2015 09:02 7,3 C 7,2 C 6,1 C 98 % 15 lf 1022,1 hPa 0,0 l/m 0 min 2 min 11 W/m 2,1 km/h (1 Bft) 97,83 %
01.12.2015 09:04 7,3 C 7,2 C 6,7 C 98 % 15 lf 1022,1 hPa 0,0 l/m 0 min 2 min 12 W/m 0,0 km/h (0 Bft) 100,00 %
01.12.2015 09:06 7,3 C 7,2 C 6,7 C 98 % 15 lf 1022,2 hPa 0,0 l/m 0 min 2 min 11 W/m 4,2 km/h (1 Bft) 97,87 %
01.12.2015 09:08 7,3 C 7,2 C 6,7 C 98 % 15 lf 1022,1 hPa 0,0 l/m 0 min 2 min 11 W/m 4,2 km/h (1 Bft) 95,74 %
01.12.2015 09:10 7,3 C 7,2 C 6,7 C 98 % 15 lf 1022,2 hPa 0,0 l/m 0 min 2 min 12 W/m 4,2 km/h (1 Bft) 100,00 %
01.12.2015 09:12 7,3 C 7,2 C 6,7 C 98 % 15 lf 1022,2 hPa 0,0 l/m 0 min 2 min 13 W/m 4,2 km/h (1 Bft) 100,00 %
01.12.2015 09:14 7,3 C 7,2 C 6,7 C 98 % 15 lf 1022,2 hPa 0,2 l/m 0 min 2 min 12 W/m 4,2 km/h (1 Bft) 100,00 %
01.12.2015 09:16 7,3 C 7,2 C 6,7 C 98 % 15 lf 1022,3 hPa 0,0 l/m 0 min 2 min 12 W/m 4,2 km/h (1 Bft) 97,87 %
01.12.2015 09:18 7,3 C 7,2 C 6,1 C 98 % 15 lf 1022,4 hPa 0,0 l/m 0 min 2 min 12 W/m 2,1 km/h (1 Bft) 97,87 %
01.12.2015 09:20 7,3 C 7,2 C 6,1 C 98 % 15 lf 1022,4 hPa 0,0 l/m 0 min 2 min 13 W/m 0,0 km/h (0 Bft) 97,87 %
01.12.2015 09:22 7,3 C 7,2 C 6,1 C 98 % 15 lf 1022,4 hPa 0,0 l/m 0 min 2 min 14 W/m 2,1 km/h (1 Bft) 100,00 %
01.12.2015 09:24 7,3 C 7,2 C 6,7 C 98 % 15 lf 1022,5 hPa 0,0 l/m 0 min 2 min 14 W/m 2,1 km/h (1 Bft) 100,00 %
01.12.2015 09:26 7,3 C 7,2 C 6,7 C 98 % 15 lf 1022,5 hPa 0,0 l/m 0 min 2 min 18 W/m 4,2 km/h (1 Bft) 97,87 %
01.12.2015 09:28 7,3 C 7,2 C 6,7 C 98 % 15 lf 1022,4 hPa 0,0 l/m 0 min 2 min 21 W/m 4,2 km/h (1 Bft) 97,87 %
01.12.2015 09:30 7,3 C 7,2 C 6,7 C 98 % 15 lf 1022,5 hPa 0,0 l/m 0 min 2 min 23 W/m 4,2 km/h (1 Bft) 97,87 %
01.12.2015 09:32 7,3 C 7,2 C 6,7 C 98 % 15 lf 1022,4 hPa 0,2 l/m 0 min 2 min 23 W/m 6,3 km/h (2 Bft) 100,00 %
01.12.2015 09:34 7,3 C 7,8 C 6,7 C 98 % 15 lf 1022,4 hPa 0,0 l/m 0 min 0 min 25 W/m 6,3 km/h (2 Bft) 95,74 %
01.12.2015 09:36 7,3 C 7,8 C 6,7 C 98 % 15 lf 1022,5 hPa 0,0 l/m 0 min 2 min 25 W/m 2,1 km/h (1 Bft) 93,48 %
01.12.2015 09:38 7,4 C 7,8 C 6,7 C 98 % 15 lf 1022,5 hPa 0,0 l/m 0 min 2 min 27 W/m 2,1 km/h (1 Bft) 97,87 %
01.12.2015 09:40 7,4 C 7,8 C 6,7 C 98 % 15 lf 1022,5 hPa 0,0 l/m 0 min 2 min 28 W/m 4,2 km/h (1 Bft) 95,74 %
01.12.2015 09:42 7,4 C 7,8 C 6,7 C 98 % 15 lf 1022,6 hPa 0,0 l/m 0 min 0 min 28 W/m 4,2 km/h (1 Bft) 95,74 %
01.12.2015 09:44 7,4 C 7,8 C 6,7 C 98 % 15 lf 1022,6 hPa 0,0 l/m 0 min 2 min 26 W/m 2,1 km/h (1 Bft) 95,74 %
01.12.2015 09:46 7,4 C 7,8 C 6,7 C 98 % 15 lf 1022,6 hPa 0,0 l/m 0 min 0 min 26 W/m 6,3 km/h (2 Bft) 93,62 %
01.12.2015 09:48 7,4 C 7,8 C 6,7 C 98 % 15 lf 1022,7 hPa 0,0 l/m 0 min 0 min 25 W/m 6,3 km/h (2 Bft) 95,65 %
01.12.2015 09:50 7,4 C 7,8 C 6,7 C 98 % 15 lf 1022,7 hPa 0,0 l/m 0 min 0 min 25 W/m 4,2 km/h (1 Bft) 93,62 %
01.12.2015 09:52 7,4 C 7,8 C 6,7 C 98 % 15 lf 1022,8 hPa 0,0 l/m 0 min 0 min 25 W/m 6,3 km/h (2 Bft) 95,74 %
01.12.2015 09:54 7,4 C 7,8 C 6,7 C 98 % 15 lf 1022,8 hPa 0,0 l/m 0 min 2 min 26 W/m 4,2 km/h (1 Bft) 91,49 %
01.12.2015 09:56 7,4 C 7,8 C 6,7 C 98 % 15 lf 1022,8 hPa 0,0 l/m 0 min 2 min 28 W/m 0,0 km/h (0 Bft) 93,62 %
01.12.2015 09:58 7,4 C 7,8 C 6,7 C 98 % 15 lf 1022,8 hPa 0,0 l/m 0 min 2 min 29 W/m 4,2 km/h (1 Bft) 95,74 %
01.12.2015 10:00 7,5 C 7,8 C 6,7 C 98 % 15 lf 1022,9 hPa 0,0 l/m 0 min 2 min 31 W/m 4,2 km/h (1 Bft) 93,48 %
01.12.2015 10:02 7,5 C 7,8 C 6,7 C 98 % 15 lf 1022,8 hPa 0,0 l/m 0 min 2 min 32 W/m 6,3 km/h (2 Bft) 95,74 %
01.12.2015 10:04 7,5 C 7,8 C 6,7 C 98 % 15 lf 1022,9 hPa 0,0 l/m 0 min 2 min 33 W/m 6,3 km/h (2 Bft) 89,36 %
01.12.2015 10:06 7,5 C 7,8 C 6,7 C 98 % 15 lf 1022,9 hPa 0,2 l/m 0 min 2 min 34 W/m 4,2 km/h (1 Bft) 91,49 %
01.12.2015 10:08 7,5 C 7,8 C 6,7 C 98 % 15 lf 1022,9 hPa 0,0 l/m 0 min 2 min 34 W/m 4,2 km/h (1 Bft) 93,62 %
01.12.2015 10:10 7,5 C 7,8 C 6,7 C 98 % 15 lf 1022,9 hPa 0,0 l/m 0 min 2 min 33 W/m 4,2 km/h (1 Bft) 91,49 %
01.12.2015 10:12 7,5 C 7,8 C 6,7 C 98 % 15 lf 1022,9 hPa 0,0 l/m 0 min 2 min 37 W/m 4,2 km/h (1 Bft) 91,30 %
01.12.2015 10:14 7,6 C 7,8 C 6,7 C 98 % 15 lf 1022,9 hPa 0,0 l/m 0 min 0 min 38 W/m 4,2 km/h (1 Bft) 95,74 %
01.12.2015 10:16 7,6 C 7,8 C 6,7 C 98 % 15 lf 1022,9 hPa 0,0 l/m 0 min 0 min 35 W/m 6,3 km/h (2 Bft) 93,62 %
01.12.2015 10:18 7,6 C 7,8 C 6,7 C 98 % 15 lf 1022,9 hPa 0,0 l/m 0 min 2 min 33 W/m 6,3 km/h (2 Bft) 91,49 %
01.12.2015 10:20 7,6 C 7,8 C 6,7 C 98 % 15 lf 1022,9 hPa 0,0 l/m 0 min 2 min 33 W/m 6,3 km/h (2 Bft) 95,74 %
01.12.2015 10:22 7,6 C 7,8 C 6,7 C 98 % 15 lf 1022,9 hPa 0,0 l/m 0 min 0 min 36 W/m 6,3 km/h (2 Bft) 93,62 %
01.12.2015 10:24 7,6 C 7,8 C 6,7 C 98 % 15 lf 1022,9 hPa 0,0 l/m 0 min 0 min 38 W/m 4,2 km/h (1 Bft) 89,13 %
01.12.2015 10:26 7,6 C 7,8 C 6,7 C 98 % 15 lf 1022,9 hPa 0,0 l/m 0 min 0 min 40 W/m 4,2 km/h (1 Bft) 93,62 %
01.12.2015 10:28 7,6 C 7,8 C 6,7 C 98 % 15 lf 1023,0 hPa 0,0 l/m 0 min 0 min 38 W/m 6,3 km/h (2 Bft) 93,62 %
01.12.2015 10:30 7,6 C 7,8 C 6,7 C 98 % 15 lf 1022,9 hPa 0,0 l/m 0 min 0 min 40 W/m 4,2 km/h (1 Bft) 95,74 %
01.12.2015 10:32 7,6 C 7,8 C 6,7 C 98 % 15 lf 1022,9 hPa 0,0 l/m 0 min 0 min 44 W/m 2,1 km/h (1 Bft) 95,74 %
01.12.2015 10:34 7,6 C 7,8 C 6,7 C 98 % 15 lf 1023,0 hPa 0,0 l/m 0 min 0 min 46 W/m 6,3 km/h (2 Bft) 93,48 %
01.12.2015 10:36 7,6 C 7,8 C 6,7 C 98 % 15 lf 1023,0 hPa 0,0 l/m 0 min 0 min 45 W/m 6,3 km/h (2 Bft) 93,62 %
01.12.2015 10:38 7,6 C 7,8 C 6,7 C 98 % 15 lf 1023,0 hPa 0,0 l/m 0 min 0 min 44 W/m 4,2 km/h (1 Bft) 95,74 %
01.12.2015 10:40 7,6 C 7,8 C 6,7 C 98 % 15 lf 1023,0 hPa 0,0 l/m 0 min 0 min 46 W/m 4,2 km/h (1 Bft) 95,74 %
01.12.2015 10:42 7,6 C 7,8 C 6,7 C 98 % 15 lf 1023,0 hPa 0,0 l/m 0 min 0 min 51 W/m 2,1 km/h (1 Bft) 93,62 %
01.12.2015 10:44 7,6 C 8,3 C 7,2 C 98 % 15 lf 1023,1 hPa 0,0 l/m 0 min 0 min 60 W/m 0,0 km/h (0 Bft) 93,62 %
01.12.2015 10:46 7,6 C 7,8 C 7,2 C 98 % 15 lf 1023,0 hPa 0,0 l/m 0 min 0 min 67 W/m 4,2 km/h (1 Bft) 93,48 %
01.12.2015 10:48 7,7 C 8,3 C 7,2 C 98 % 15 lf 1023,1 hPa 0,0 l/m 0 min 2 min 67 W/m 4,2 km/h (1 Bft) 95,74 %
01.12.2015 10:50 7,7 C 8,3 C 6,7 C 98 % 15 lf 1023,1 hPa 0,0 l/m 0 min 2 min 63 W/m 4,2 km/h (1 Bft) 95,74 %
01.12.2015 10:52 7,7 C 7,8 C 7,2 C 98 % 15 lf 1023,0 hPa 0,0 l/m 0 min 0 min 63 W/m 2,1 km/h (1 Bft) 95,74 %
01.12.2015 10:54 7,7 C 7,8 C 7,2 C 98 % 15 lf 1023,1 hPa 0,0 l/m 0 min 0 min 63 W/m 6,3 km/h (2 Bft) 100,00 %
01.12.2015 10:56 7,7 C 7,8 C 7,2 C 98 % 15 lf 1023,1 hPa 0,0 l/m 0 min 0 min 59 W/m 6,3 km/h (2 Bft) 95,74 %
01.12.2015 10:58 7,7 C 7,8 C 7,2 C 98 % 15 lf 1023,1 hPa 0,0 l/m 0 min 0 min 56 W/m 6,3 km/h (2 Bft) 95,65 %
01.12.2015 11:00 7,7 C 7,8 C 7,2 C 98 % 15 lf 1023,1 hPa 0,0 l/m 0 min 0 min 58 W/m 6,3 km/h (2 Bft) 95,74 %
01.12.2015 11:02 7,7 C 8,3 C 7,2 C 98 % 15 lf 1023,2 hPa 0,0 l/m 0 min 0 min 60 W/m 4,2 km/h (1 Bft) 95,74 %
01.12.2015 11:04 7,7 C 8,3 C 7,2 C 98 % 15 lf 1023,2 hPa 0,0 l/m 0 min 0 min 56 W/m 4,2 km/h (1 Bft) 97,87 %
01.12.2015 11:06 7,7 C 7,8 C 7,2 C 98 % 15 lf 1023,2 hPa 0,0 l/m 0 min 0 min 55 W/m 4,2 km/h (1 Bft) 97,87 %
01.12.2015 11:08 7,7 C 7,8 C 7,2 C 98 % 15 lf 1023,3 hPa 0,0 l/m 0 min 0 min 53 W/m 4,2 km/h (1 Bft) 95,74 %
01.12.2015 11:10 7,7 C 7,8 C 7,2 C 98 % 15 lf 1023,2 hPa 0,0 l/m 0 min 0 min 50 W/m 4,2 km/h (1 Bft) 93,48 %
01.12.2015 11:12 7,8 C 7,8 C 7,2 C 98 % 15 lf 1023,2 hPa 0,0 l/m 0 min 0 min 53 W/m 2,1 km/h (1 Bft) 97,87 %
01.12.2015 11:14 7,8 C 8,3 C 7,2 C 98 % 15 lf 1023,2 hPa 0,0 l/m 0 min 0 min 58 W/m 2,1 km/h (1 Bft) 97,87 %
01.12.2015 11:16 7,8 C 8,3 C 7,2 C 98 % 15 lf 1023,2 hPa 0,0 l/m 0 min 2 min 65 W/m 4,2 km/h (1 Bft) 97,87 %
01.12.2015 11:18 7,8 C 8,3 C 7,2 C 98 % 15 lf 1023,0 hPa 0,0 l/m 0 min 2 min 69 W/m 4,2 km/h (1 Bft) 95,74 %
01.12.2015 11:20 7,8 C 7,8 C 7,2 C 98 % 15 lf 1023,0 hPa 0,0 l/m 0 min 2 min 72 W/m 6,3 km/h (2 Bft) 97,87 %
01.12.2015 11:22 7,8 C 7,8 C 7,2 C 98 % 15 lf 1022,9 hPa 0,0 l/m 0 min 2 min 84 W/m 6,3 km/h (2 Bft) 97,83 %
01.12.2015 11:24 7,8 C 8,3 C 7,2 C 98 % 15 lf 1023,0 hPa 0,0 l/m 0 min 2 min 96 W/m 4,2 km/h (1 Bft) 97,87 %
01.12.2015 11:26 7,8 C 8,3 C 7,2 C 98 % 15 lf 1023,1 hPa 0,0 l/m 0 min 0 min 81 W/m 2,1 km/h (1 Bft) 95,74 %
01.12.2015 11:28 7,9 C 8,3 C 7,2 C 98 % 15 lf 1023,0 hPa 0,0 l/m 0 min 0 min 75 W/m 4,2 km/h (1 Bft) 97,87 %
01.12.2015 11:30 7,9 C 7,8 C 7,2 C 99 % 15 lf 1023,0 hPa 0,2 l/m 0 min 0 min 83 W/m 8,4 km/h (2 Bft) 97,87 %
01.12.2015 11:32 7,9 C 8,3 C 7,2 C 99 % 15 lf 1022,9 hPa 0,0 l/m 0 min 0 min 91 W/m 8,4 km/h (2 Bft) 95,74 %
01.12.2015 11:34 7,9 C 8,3 C 7,2 C 99 % 15 lf 1022,9 hPa 0,0 l/m 0 min 0 min 85 W/m 8,4 km/h (2 Bft) 97,83 %
01.12.2015 11:36 7,9 C 8,3 C 7,2 C 99 % 15 lf 1022,8 hPa 0,0 l/m 0 min 0 min 79 W/m 6,3 km/h (2 Bft) 95,74 %
01.12.2015 11:38 7,9 C 8,3 C 7,2 C 99 % 15 lf 1022,8 hPa 0,0 l/m 0 min 2 min 78 W/m 10,5 km/h (2 Bft) 95,74 %
01.12.2015 11:40 7,9 C 8,3 C 7,2 C 99 % 15 lf 1022,8 hPa 0,0 l/m 0 min 0 min 77 W/m 6,3 km/h (2 Bft) 95,74 %
01.12.2015 11:42 7,9 C 8,3 C 7,2 C 99 % 15 lf 1022,9 hPa 0,0 l/m 0 min 0 min 62 W/m 6,3 km/h (2 Bft) 97,87 %
01.12.2015 11:44 7,9 C 8,3 C 7,2 C 99 % 15 lf 1022,9 hPa 0,0 l/m 0 min 0 min 56 W/m 6,3 km/h (2 Bft) 97,83 %
01.12.2015 11:46 7,9 C 7,8 C 7,2 C 99 % 15 lf 1022,9 hPa 0,0 l/m 0 min 0 min 52 W/m 10,5 km/h (2 Bft) 89,36 %
01.12.2015 11:48 7,9 C 7,8 C 7,2 C 99 % 15 lf 1023,0 hPa 0,0 l/m 0 min 0 min 51 W/m 8,4 km/h (2 Bft) 97,87 %
01.12.2015 11:50 7,9 C 7,8 C 7,2 C 99 % 15 lf 1022,9 hPa 0,0 l/m 0 min 0 min 43 W/m 6,3 km/h (2 Bft) 91,43 %
01.12.2015 11:52 7,9 C 7,8 C 7,2 C 99 % 15 lf 1023,0 hPa 0,0 l/m 0 min 0 min 33 W/m 6,3 km/h (2 Bft) 95,00 %
01.12.2015 11:54 7,9 C 8,3 C 7,2 C 99 % 15 lf 1023,0 hPa 0,0 l/m 0 min 2 min 34 W/m 6,3 km/h (2 Bft) 95,74 %
01.12.2015 11:56 7,9 C 8,3 C 7,2 C 99 % 15 lf 1023,0 hPa 0,0 l/m 0 min 2 min 32 W/m 6,3 km/h (2 Bft) 93,48 %
01.12.2015 11:58 7,9 C 8,3 C 7,2 C 99 % 15 lf 1023,0 hPa 0,0 l/m 0 min 2 min 30 W/m 4,2 km/h (1 Bft) 95,74 %
01.12.2015 12:00 7,9 C 7,8 C 7,2 C 99 % 15 lf 1023,1 hPa 0,0 l/m 0 min 2 min 29 W/m 10,5 km/h (2 Bft) 93,62 %
01.12.2015 12:02 7,9 C 7,8 C 7,2 C 99 % 15 lf 1023,1 hPa 0,0 l/m 0 min 2 min 30 W/m 10,5 km/h (2 Bft) 97,87 %
01.12.2015 12:04 8,0 C 7,8 C 7,2 C 99 % 15 lf 1023,0 hPa 0,0 l/m 0 min 2 min 34 W/m 8,4 km/h (2 Bft) 97,87 %
01.12.2015 12:06 7,9 C 7,8 C 7,2 C 99 % 15 lf 1023,0 hPa 0,2 l/m 0 min 2 min 40 W/m 6,3 km/h (2 Bft) 93,62 %
01.12.2015 12:08 7,9 C 7,8 C 7,2 C 99 % 15 lf 1023,0 hPa 0,0 l/m 0 min 2 min 43 W/m 6,3 km/h (2 Bft) 95,65 %
01.12.2015 12:10 7,9 C 7,8 C 7,2 C 99 % 15 lf 1023,1 hPa 0,0 l/m 0 min 2 min 40 W/m 8,4 km/h (2 Bft) 97,87 %
01.12.2015 12:12 7,9 C 7,8 C 7,2 C 99 % 15 lf 1023,0 hPa 0,0 l/m 0 min 2 min 34 W/m 8,4 km/h (2 Bft) 100,00 %
01.12.2015 12:14 7,9 C 7,8 C 7,2 C 99 % 15 lf 1023,1 hPa 0,0 l/m 0 min 2 min 33 W/m 8,4 km/h (2 Bft) 97,87 %
01.12.2015 12:16 7,9 C 7,8 C 7,2 C 99 % 15 lf 1023,0 hPa 0,0 l/m 0 min 2 min 35 W/m 10,5 km/h (2 Bft) 100,00 %
01.12.2015 12:18 7,9 C 8,3 C 7,2 C 99 % 15 lf 1023,0 hPa 0,2 l/m 0 min 2 min 39 W/m 8,4 km/h (2 Bft) 100,00 %
01.12.2015 12:20 7,9 C 8,3 C 7,2 C 99 % 15 lf 1023,0 hPa 0,0 l/m 0 min 2 min 39 W/m 4,2 km/h (1 Bft) 100,00 %
01.12.2015 12:22 7,9 C 8,3 C 7,2 C 99 % 15 lf 1023,0 hPa 0,0 l/m 0 min 2 min 37 W/m 4,2 km/h (1 Bft) 93,62 %
01.12.2015 12:24 7,9 C 8,3 C 7,2 C 99 % 15 lf 1023,1 hPa 0,0 l/m 0 min 2 min 39 W/m 6,3 km/h (2 Bft) 97,87 %
01.12.2015 12:26 8,0 C 8,3 C 7,2 C 99 % 15 lf 1023,0 hPa 0,0 l/m 0 min 2 min 42 W/m 8,4 km/h (2 Bft) 97,87 %
01.12.2015 12:28 8,0 C 8,3 C 7,2 C 99 % 15 lf 1023,0 hPa 0,0 l/m 0 min 2 min 50 W/m 10,5 km/h (2 Bft) 97,87 %
01.12.2015 12:30 8,0 C 8,3 C 7,2 C 99 % 15 lf 1023,0 hPa 0,2 l/m 0 min 2 min 61 W/m 16,7 km/h (3 Bft) 97,83 %
01.12.2015 12:32 8,0 C 7,8 C 7,2 C 99 % 15 lf 1023,0 hPa 0,0 l/m 0 min 2 min 62 W/m 12,6 km/h (3 Bft) 97,22 %
01.12.2015 12:34 8,0 C 8,3 C 7,2 C 99 % 15 lf 1023,0 hPa 0,0 l/m 0 min 2 min 62 W/m 10,5 km/h (2 Bft) 97,83 %
01.12.2015 12:36 8,0 C 8,3 C 7,2 C 99 % 15 lf 1023,0 hPa 0,0 l/m 0 min 2 min 63 W/m 10,5 km/h (2 Bft) 95,74 %
01.12.2015 12:38 8,0 C 8,3 C 7,2 C 99 % 15 lf 1023,0 hPa 0,2 l/m 0 min 2 min 62 W/m 10,5 km/h (2 Bft) 97,87 %
01.12.2015 12:40 8,0 C 8,3 C 7,2 C 99 % 15 lf 1023,0 hPa 0,0 l/m 0 min 2 min 62 W/m 10,5 km/h (2 Bft) 95,74 %
01.12.2015 12:42 8,0 C 7,8 C 7,2 C 99 % 15 lf 1023,0 hPa 0,0 l/m 0 min 2 min 58 W/m 12,6 km/h (3 Bft) 91,49 %
01.12.2015 12:44 8,0 C 7,8 C 7,2 C 99 % 15 lf 1023,1 hPa 0,0 l/m 0 min 2 min 51 W/m 10,5 km/h (2 Bft) 95,74 %
01.12.2015 12:46 8,0 C 8,3 C 7,2 C 99 % 15 lf 1023,0 hPa 0,2 l/m 0 min 2 min 46 W/m 10,5 km/h (2 Bft) 97,83 %
01.12.2015 12:48 8,0 C 7,8 C 7,2 C 99 % 15 lf 1023,1 hPa 0,0 l/m 0 min 2 min 48 W/m 12,6 km/h (3 Bft) 95,74 %
01.12.2015 12:50 8,0 C 8,3 C 7,2 C 99 % 15 lf 1023,1 hPa 0,0 l/m 0 min 2 min 53 W/m 12,6 km/h (3 Bft) 95,74 %
01.12.2015 12:52 8,0 C 8,3 C 7,2 C 99 % 15 lf 1023,1 hPa 0,0 l/m 0 min 2 min 57 W/m 10,5 km/h (2 Bft) 93,62 %
01.12.2015 12:54 8,0 C 8,3 C 7,2 C 99 % 15 lf 1023,1 hPa 0,0 l/m 0 min 2 min 60 W/m 10,5 km/h (2 Bft) 97,87 %
01.12.2015 12:56 8,0 C 8,3 C 7,2 C 99 % 15 lf 1023,1 hPa 0,2 l/m 0 min 2 min 60 W/m 10,5 km/h (2 Bft) 97,87 %
01.12.2015 12:58 8,0 C 8,3 C 7,2 C 99 % 15 lf 1023,1 hPa 0,0 l/m 0 min 2 min 60 W/m 8,4 km/h (2 Bft) 97,83 %
01.12.2015 13:00 8,0 C 8,3 C 7,2 C 99 % 15 lf 1023,1 hPa 0,0 l/m 0 min 2 min 57 W/m 12,6 km/h (3 Bft) 93,62 %
01.12.2015 13:02 8,1 C 8,3 C 7,2 C 99 % 15 lf 1023,2 hPa 0,0 l/m 0 min 2 min 55 W/m 10,5 km/h (2 Bft) 95,74 %
01.12.2015 13:04 8,1 C 8,3 C 7,2 C 99 % 15 lf 1023,2 hPa 0,0 l/m 0 min 2 min 51 W/m 8,4 km/h (2 Bft) 95,74 %
01.12.2015 13:06 8,1 C 8,3 C 7,2 C 99 % 15 lf 1023,2 hPa 0,0 l/m 0 min 2 min 46 W/m 6,3 km/h (2 Bft) 91,49 %
01.12.2015 13:08 8,1 C 8,3 C 7,2 C 99 % 15 lf 1023,2 hPa 0,0 l/m 0 min 2 min 39 W/m 4,2 km/h (1 Bft) 91,49 %
01.12.2015 13:10 8,1 C 8,3 C 7,2 C 99 % 15 lf 1023,3 hPa 0,0 l/m 0 min 2 min 41 W/m 4,2 km/h (1 Bft) 95,65 %
01.12.2015 13:12 8,1 C 8,3 C 7,2 C 99 % 15 lf 1023,3 hPa 0,0 l/m 0 min 2 min 43 W/m 4,2 km/h (1 Bft) 95,74 %
01.12.2015 13:14 8,1 C 8,3 C 7,2 C 99 % 15 lf 1023,3 hPa 0,2 l/m 0 min 2 min 46 W/m 4,2 km/h (1 Bft) 93,62 %
01.12.2015 13:16 8,1 C 8,3 C 7,2 C 99 % 15 lf 1023,3 hPa 0,0 l/m 0 min 2 min 45 W/m 4,2 km/h (1 Bft) 93,62 %
01.12.2015 13:18 8,1 C 8,3 C 7,2 C 99 % 15 lf 1023,4 hPa 0,0 l/m 0 min 2 min 40 W/m 4,2 km/h (1 Bft) 89,36 %
01.12.2015 13:20 8,2 C 8,3 C 7,2 C 99 % 15 lf 1023,3 hPa 0,0 l/m 0 min 2 min 39 W/m 6,3 km/h (2 Bft) 95,65 %
01.12.2015 13:22 8,1 C 8,3 C 7,2 C 99 % 15 lf 1023,3 hPa 0,0 l/m 0 min 2 min 38 W/m 2,1 km/h (1 Bft) 93,62 %
01.12.2015 13:24 8,2 C 8,3 C 7,2 C 99 % 15 lf 1023,4 hPa 0,0 l/m 0 min 2 min 43 W/m 6,3 km/h (2 Bft) 95,74 %
01.12.2015 13:26 8,2 C 8,3 C 7,2 C 99 % 15 lf 1023,4 hPa 0,0 l/m 0 min 2 min 46 W/m 8,4 km/h (2 Bft) 95,74 %
01.12.2015 13:28 8,2 C 8,3 C 7,2 C 99 % 15 lf 1023,3 hPa 0,0 l/m 0 min 2 min 52 W/m 6,3 km/h (2 Bft) 96,36 %
01.12.2015 13:30 8,2 C 8,3 C 7,2 C 99 % 15 lf 1023,3 hPa 0,0 l/m 0 min 2 min 51 W/m 6,3 km/h (2 Bft) 95,74 %
01.12.2015 13:32 8,2 C 8,3 C 7,2 C 99 % 15 lf 1023,3 hPa 0,2 l/m 0 min 2 min 50 W/m 8,4 km/h (2 Bft) 91,30 %
01.12.2015 13:34 8,2 C 8,3 C 7,2 C 99 % 15 lf 1023,2 hPa 0,0 l/m 0 min 2 min 57 W/m 6,3 km/h (2 Bft) 93,62 %
01.12.2015 13:36 8,2 C 8,3 C 7,2 C 99 % 15 lf 1023,2 hPa 0,0 l/m 0 min 2 min 56 W/m 6,3 km/h (2 Bft) 95,74 %
01.12.2015 13:38 8,2 C 8,3 C 7,2 C 99 % 15 lf 1023,2 hPa 0,0 l/m 0 min 2 min 49 W/m 8,4 km/h (2 Bft) 93,62 %
01.12.2015 13:40 8,2 C 8,3 C 7,2 C 99 % 15 lf 1023,2 hPa 0,0 l/m 0 min 2 min 41 W/m 6,3 km/h (2 Bft) 95,74 %
01.12.2015 13:42 8,2 C 8,3 C 7,2 C 99 % 15 lf 1023,1 hPa 0,0 l/m 0 min 2 min 32 W/m 6,3 km/h (2 Bft) 93,48 %
01.12.2015 13:44 8,2 C 8,3 C 7,2 C 99 % 15 lf 1023,2 hPa 0,0 l/m 0 min 2 min 24 W/m 6,3 km/h (2 Bft) 95,74 %
01.12.2015 13:46 8,2 C 8,3 C 7,2 C 99 % 15 lf 1023,2 hPa 0,0 l/m 0 min 2 min 21 W/m 6,3 km/h (2 Bft) 93,62 %
01.12.2015 13:48 8,2 C 8,3 C 7,2 C 99 % 15 lf 1023,2 hPa 0,2 l/m 0 min 2 min 21 W/m 6,3 km/h (2 Bft) 95,74 %
01.12.2015 13:50 8,2 C 8,3 C 7,2 C 99 % 15 lf 1023,2 hPa 0,0 l/m 0 min 2 min 22 W/m 4,2 km/h (1 Bft) 97,87 %
01.12.2015 13:52 8,2 C 8,3 C 7,2 C 99 % 15 lf 1023,2 hPa 0,0 l/m 0 min 2 min 21 W/m 6,3 km/h (2 Bft) 95,74 %
01.12.2015 13:54 8,3 C 8,3 C 7,2 C 99 % 15 lf 1023,2 hPa 0,0 l/m 0 min 2 min 21 W/m 4,2 km/h (1 Bft) 97,83 %
01.12.2015 13:56 8,2 C 8,3 C 7,2 C 99 % 15 lf 1023,3 hPa 0,0 l/m 0 min 2 min 20 W/m 2,1 km/h (1 Bft) 93,62 %
01.12.2015 13:58 8,3 C 8,3 C 7,2 C 99 % 15 lf 1023,3 hPa 0,0 l/m 0 min 0 min 20 W/m 4,2 km/h (1 Bft) 95,74 %
01.12.2015 14:00 8,3 C 8,3 C 7,2 C 99 % 15 lf 1023,3 hPa 0,0 l/m 0 min 0 min 24 W/m 4,2 km/h (1 Bft) 95,74 %
01.12.2015 14:02 8,3 C 8,3 C 7,2 C 99 % 15 lf 1023,3 hPa 0,0 l/m 0 min 0 min 25 W/m 8,4 km/h (2 Bft) 97,87 %
01.12.2015 14:04 8,3 C 8,3 C 7,2 C 99 % 15 lf 1023,3 hPa 0,0 l/m 0 min 0 min 25 W/m 6,3 km/h (2 Bft) 100,00 %
01.12.2015 14:06 8,3 C 8,3 C 7,2 C 99 % 15 lf 1023,3 hPa 0,0 l/m 0 min 0 min 26 W/m 6,3 km/h (2 Bft) 97,83 %
01.12.2015 14:08 8,3 C 8,3 C 7,2 C 99 % 15 lf 1023,2 hPa 0,0 l/m 0 min 0 min 24 W/m 4,2 km/h (1 Bft) 100,00 %
01.12.2015 14:10 8,3 C 8,3 C 7,2 C 99 % 15 lf 1023,3 hPa 0,0 l/m 0 min 2 min 22 W/m 6,3 km/h (2 Bft) 100,00 %
01.12.2015 14:12 8,3 C 8,3 C 7,2 C 99 % 15 lf 1023,2 hPa 0,0 l/m 0 min 0 min 21 W/m 8,4 km/h (2 Bft) 97,87 %
01.12.2015 14:14 8,3 C 8,3 C 7,2 C 99 % 15 lf 1023,1 hPa 0,0 l/m 0 min 0 min 22 W/m 8,4 km/h (2 Bft) 100,00 %
01.12.2015 14:16 8,3 C 8,3 C 7,2 C 99 % 15 lf 1023,2 hPa 0,0 l/m 0 min 0 min 20 W/m 4,2 km/h (1 Bft) 100,00 %
01.12.2015 14:18 8,3 C 8,3 C 7,2 C 99 % 15 lf 1023,2 hPa 0,0 l/m 0 min 0 min 19 W/m 6,3 km/h (2 Bft) 95,65 %
01.12.2015 14:20 8,3 C 8,3 C 7,2 C 99 % 15 lf 1023,1 hPa 0,0 l/m 0 min 0 min 21 W/m 8,4 km/h (2 Bft) 95,74 %
01.12.2015 14:22 8,3 C 8,3 C 7,2 C 99 % 15 lf 1023,1 hPa 0,0 l/m 0 min 0 min 20 W/m 6,3 km/h (2 Bft) 97,87 %
01.12.2015 14:24 8,3 C 8,3 C 7,2 C 99 % 15 lf 1023,1 hPa 0,0 l/m 0 min 0 min 19 W/m 6,3 km/h (2 Bft) 97,87 %
01.12.2015 14:26 8,3 C 8,3 C 7,2 C 99 % 15 lf 1023,1 hPa 0,0 l/m 0 min 0 min 19 W/m 6,3 km/h (2 Bft) 97,87 %
01.12.2015 14:28 8,3 C 8,3 C 7,2 C 99 % 15 lf 1023,1 hPa 0,0 l/m 0 min 0 min 19 W/m 6,3 km/h (2 Bft) 93,62 %
01.12.2015 14:30 8,3 C 8,3 C 7,2 C 99 % 15 lf 1023,1 hPa 0,2 l/m 0 min 0 min 19 W/m 6,3 km/h (2 Bft) 96,00 %
01.12.2015 14:32 8,3 C 8,3 C 7,2 C 99 % 15 lf 1023,1 hPa 0,0 l/m 0 min 0 min 19 W/m 6,3 km/h (2 Bft) 97,87 %
01.12.2015 14:34 8,3 C 8,3 C 7,2 C 99 % 15 lf 1023,1 hPa 0,0 l/m 0 min 0 min 20 W/m 6,3 km/h (2 Bft) 97,87 %
01.12.2015 14:36 8,3 C 8,3 C 7,2 C 99 % 15 lf 1023,1 hPa 0,0 l/m 0 min 0 min 22 W/m 8,4 km/h (2 Bft) 95,74 %
01.12.2015 14:38 8,3 C 8,3 C 7,2 C 99 % 15 lf 1023,1 hPa 0,0 l/m 0 min 0 min 26 W/m 8,4 km/h (2 Bft) 95,74 %
01.12.2015 14:40 8,3 C 8,3 C 7,2 C 99 % 15 lf 1023,1 hPa 0,0 l/m 0 min 0 min 25 W/m 10,5 km/h (2 Bft) 93,62 %
01.12.2015 14:42 8,3 C 8,3 C 7,2 C 99 % 15 lf 1023,1 hPa 0,0 l/m 0 min 0 min 25 W/m 8,4 km/h (2 Bft) 95,65 %
01.12.2015 14:44 8,4 C 8,3 C 7,2 C 99 % 15 lf 1023,1 hPa 0,0 l/m 0 min 2 min 25 W/m 12,6 km/h (3 Bft) 97,87 %
01.12.2015 14:46 8,4 C 8,3 C 7,2 C 99 % 15 lf 1023,1 hPa 0,0 l/m 0 min 0 min 25 W/m 10,5 km/h (2 Bft) 97,87 %
01.12.2015 14:48 8,4 C 8,3 C 7,2 C 99 % 15 lf 1023,1 hPa 0,0 l/m 0 min 0 min 22 W/m 8,4 km/h (2 Bft) 97,87 %
01.12.2015 14:50 8,4 C 8,3 C 7,2 C 99 % 15 lf 1023,0 hPa 0,0 l/m 0 min 0 min 21 W/m 6,3 km/h (2 Bft) 95,74 %
01.12.2015 14:52 8,4 C 8,3 C 7,2 C 99 % 15 lf 1023,1 hPa 0,0 l/m 0 min 0 min 21 W/m 8,4 km/h (2 Bft) 97,83 %
01.12.2015 14:54 8,4 C 8,3 C 7,2 C 99 % 15 lf 1023,1 hPa 0,0 l/m 0 min 0 min 21 W/m 8,4 km/h (2 Bft) 97,87 %
01.12.2015 14:56 8,4 C 8,3 C 7,2 C 99 % 15 lf 1023,0 hPa 0,0 l/m 0 min 0 min 23 W/m 8,4 km/h (2 Bft) 93,62 %
01.12.2015 14:58 8,4 C 8,3 C 7,2 C 99 % 15 lf 1023,1 hPa 0,0 l/m 0 min 0 min 23 W/m 8,4 km/h (2 Bft) 97,87 %
01.12.2015 15:00 8,4 C 8,3 C 7,2 C 99 % 15 lf 1023,1 hPa 0,0 l/m 0 min 0 min 20 W/m 4,2 km/h (1 Bft) 97,87 %
01.12.2015 15:02 8,4 C 8,3 C 7,2 C 99 % 15 lf 1023,1 hPa 0,0 l/m 0 min 0 min 17 W/m 6,3 km/h (2 Bft) 95,65 %
01.12.2015 15:04 8,4 C 8,3 C 7,2 C 99 % 15 lf 1023,1 hPa 0,0 l/m 0 min 0 min 14 W/m 6,3 km/h (2 Bft) 97,87 %
01.12.2015 15:06 8,4 C 8,3 C 7,2 C 99 % 15 lf 1023,0 hPa 0,0 l/m 0 min 0 min 14 W/m 6,3 km/h (2 Bft) 97,14 %
01.12.2015 15:08 8,4 C 8,3 C 7,2 C 99 % 15 lf 1023,1 hPa 0,0 l/m 0 min 0 min 14 W/m 6,3 km/h (2 Bft) 95,74 %
01.12.2015 15:10 8,4 C 8,3 C 7,2 C 99 % 15 lf 1023,0 hPa 0,0 l/m 0 min 0 min 14 W/m 6,3 km/h (2 Bft) 97,87 %
01.12.2015 15:12 8,4 C 8,3 C 7,2 C 99 % 15 lf 1023,0 hPa 0,0 l/m 0 min 0 min 13 W/m 8,4 km/h (2 Bft) 95,74 %
01.12.2015 15:14 8,4 C 8,3 C 7,2 C 99 % 15 lf 1022,9 hPa 0,0 l/m 0 min 0 min 11 W/m 14,6 km/h (3 Bft) 97,87 %
01.12.2015 15:16 8,4 C 8,3 C 7,2 C 99 % 15 lf 1023,0 hPa 0,0 l/m 0 min 0 min 10 W/m 16,7 km/h (3 Bft) 97,87 %
01.12.2015 15:18 8,4 C 8,3 C 7,2 C 99 % 15 lf 1023,0 hPa 0,0 l/m 0 min 0 min 9 W/m 14,6 km/h (3 Bft) 95,65 %
01.12.2015 15:20 8,4 C 8,3 C 7,2 C 99 % 15 lf 1023,0 hPa 0,0 l/m 0 min 0 min 9 W/m 14,6 km/h (3 Bft) 95,74 %
01.12.2015 15:22 8,4 C 8,3 C 7,2 C 99 % 15 lf 1023,0 hPa 0,0 l/m 0 min 0 min 7 W/m 4,2 km/h (1 Bft) 97,87 %
01.12.2015 15:24 8,4 C 8,3 C 7,2 C 99 % 15 lf 1023,0 hPa 0,0 l/m 0 min 0 min 7 W/m 6,3 km/h (2 Bft) 97,87 %
01.12.2015 15:26 8,4 C 8,3 C 7,2 C 99 % 15 lf 1023,0 hPa 0,0 l/m 0 min 0 min 7 W/m 8,4 km/h (2 Bft) 97,87 %
01.12.2015 15:28 8,4 C 8,3 C 7,2 C 99 % 15 lf 1023,0 hPa 0,0 l/m 0 min 0 min 7 W/m 4,2 km/h (1 Bft) 96,55 %
01.12.2015 15:30 8,4 C 8,3 C 7,2 C 99 % 15 lf 1023,1 hPa 0,0 l/m 0 min 0 min 7 W/m 6,3 km/h (2 Bft) 95,74 %
01.12.2015 15:32 8,4 C 8,3 C 7,2 C 99 % 15 lf 1023,0 hPa 0,0 l/m 0 min 2 min 7 W/m 6,3 km/h (2 Bft) 95,74 %
01.12.2015 15:34 8,4 C 8,3 C 7,2 C 99 % 15 lf 1023,0 hPa 0,0 l/m 0 min 0 min 7 W/m 8,4 km/h (2 Bft) 93,62 %
01.12.2015 15:36 8,4 C 8,3 C 7,2 C 99 % 15 lf 1022,9 hPa 0,0 l/m 0 min 2 min 7 W/m 6,3 km/h (2 Bft) 91,49 %
01.12.2015 15:38 8,5 C 8,3 C 7,2 C 99 % 15 lf 1022,9 hPa 0,0 l/m 0 min 2 min 7 W/m 4,2 km/h (1 Bft) 89,13 %
01.12.2015 15:40 8,4 C 8,3 C 7,2 C 99 % 15 lf 1022,9 hPa 0,0 l/m 0 min 2 min 6 W/m 6,3 km/h (2 Bft) 93,62 %
01.12.2015 15:42 8,5 C 8,3 C 7,2 C 99 % 15 lf 1023,0 hPa 0,0 l/m 0 min 2 min 5 W/m 4,2 km/h (1 Bft) 95,74 %
01.12.2015 15:44 8,5 C 8,3 C 7,2 C 99 % 15 lf 1023,0 hPa 0,0 l/m 0 min 0 min 5 W/m 4,2 km/h (1 Bft) 91,49 %
01.12.2015 15:46 8,5 C 8,3 C 7,2 C 99 % 15 lf 1023,1 hPa 0,0 l/m 0 min 0 min 5 W/m 6,3 km/h (2 Bft) 91,49 %
01.12.2015 15:48 8,5 C 8,9 C 7,8 C 99 % 15 lf 1023,1 hPa 0,0 l/m 0 min 0 min 5 W/m 8,4 km/h (2 Bft) 91,49 %
01.12.2015 15:50 8,5 C 8,9 C 7,8 C 99 % 15 lf 1023,1 hPa 0,0 l/m 0 min 0 min 4 W/m 8,4 km/h (2 Bft) 89,13 %
01.12.2015 15:52 8,5 C 8,9 C 7,8 C 99 % 15 lf 1023,2 hPa 0,0 l/m 0 min 0 min 0 W/m 4,2 km/h (1 Bft) 93,62 %
01.12.2015 15:54 8,5 C 8,9 C 7,8 C 99 % 15 lf 1023,2 hPa 0,0 l/m 0 min 0 min 0 W/m 6,3 km/h (2 Bft) 93,62 %
01.12.2015 15:56 8,5 C 8,9 C 7,8 C 99 % 15 lf 1023,2 hPa 0,0 l/m 0 min 0 min 0 W/m 4,2 km/h (1 Bft) 91,49 %
01.12.2015 15:58 8,6 C 8,9 C 7,8 C 99 % 15 lf 1023,2 hPa 0,0 l/m 0 min 0 min 0 W/m 6,3 km/h (2 Bft) 91,49 %
01.12.2015 16:00 8,6 C 8,9 C 7,8 C 99 % 15 lf 1023,2 hPa 0,0 l/m 0 min 0 min 0 W/m 6,3 km/h (2 Bft) 97,87 %
01.12.2015 16:03 8,6 C 8,9 C 7,8 C 99 % 15 lf 1023,3 hPa 0,0 l/m 0 min 0 min 0 W/m 6,3 km/h (2 Bft) 95,71 %
01.12.2015 16:04 8,6 C 8,9 C 7,8 C 99 % 15 lf 1023,3 hPa 0,0 l/m 0 min 0 min 0 W/m 6,3 km/h (2 Bft) 91,30 %
01.12.2015 16:06 8,6 C 8,9 C 7,8 C 99 % 15 lf 1023,3 hPa 0,0 l/m 0 min 0 min 0 W/m 6,3 km/h (2 Bft) 91,49 %
01.12.2015 16:08 8,6 C 8,9 C 7,8 C 99 % 15 lf 1023,4 hPa 0,0 l/m 0 min 0 min 0 W/m 6,3 km/h (2 Bft) 95,74 %
01.12.2015 16:10 8,6 C 8,9 C 7,8 C 99 % 15 lf 1023,4 hPa 0,0 l/m 0 min 0 min 0 W/m 4,2 km/h (1 Bft) 95,74 %
01.12.2015 16:14 8,6 C 8,9 C 7,8 C 99 % 15 lf 1023,4 hPa 0,0 l/m 0 min 2 min 0 W/m 4,2 km/h (1 Bft) 95,70 %
01.12.2015 16:16 8,6 C 8,9 C 7,8 C 99 % 15 lf 1023,4 hPa 0,2 l/m 0 min 2 min 0 W/m 0,0 km/h (0 Bft) 93,62 %
01.12.2015 16:18 8,6 C 8,9 C 7,8 C 99 % 15 lf 1023,5 hPa 0,0 l/m 0 min 2 min 0 W/m 0,0 km/h (0 Bft) 95,74 %
01.12.2015 16:20 8,7 C 8,9 C 7,8 C 99 % 15 lf 1023,3 hPa 0,0 l/m 0 min 2 min 0 W/m 6,3 km/h (2 Bft) 95,74 %
01.12.2015 16:22 8,7 C 8,9 C 7,8 C 99 % 15 lf 1023,4 hPa 0,0 l/m 0 min 2 min 0 W/m 6,3 km/h (2 Bft) 97,87 %
01.12.2015 16:24 8,7 C 8,9 C 7,8 C 99 % 15 lf 1023,4 hPa 0,0 l/m 0 min 2 min 0 W/m 6,3 km/h (2 Bft) 93,48 %
01.12.2015 16:26 8,7 C 9,4 C 7,8 C 99 % 15 lf 1023,3 hPa 0,0 l/m 0 min 2 min 0 W/m 8,4 km/h (2 Bft) 95,74 %
01.12.2015 16:28 8,7 C 9,4 C 8,3 C 99 % 15 lf 1023,3 hPa 0,0 l/m 0 min 2 min 0 W/m 8,4 km/h (2 Bft) 97,87 %
01.12.2015 16:30 8,8 C 9,4 C 8,3 C 99 % 15 lf 1023,3 hPa 0,0 l/m 0 min 2 min 0 W/m 8,4 km/h (2 Bft) 97,87 %
01.12.2015 16:32 8,8 C 10,0 C 8,3 C 99 % 15 lf 1023,3 hPa 0,0 l/m 0 min 0 min 0 W/m 10,5 km/h (2 Bft) 95,74 %
01.12.2015 16:34 8,9 C 10,0 C 8,3 C 99 % 15 lf 1023,3 hPa 0,0 l/m 0 min 0 min 0 W/m 14,6 km/h (3 Bft) 95,74 %
01.12.2015 16:36 8,9 C 10,6 C 8,9 C 99 % 15 lf 1023,3 hPa 0,0 l/m 0 min 0 min 0 W/m 18,8 km/h (3 Bft) 97,83 %
01.12.2015 16:38 9,2 C 10,6 C 9,4 C 99 % 15 lf 1023,3 hPa 0,0 l/m 0 min 0 min 0 W/m 14,6 km/h (3 Bft) 97,87 %
01.12.2015 16:40 9,6 C 11,1 C 9,4 C 99 % 15 lf 1023,2 hPa 0,0 l/m 0 min 0 min 0 W/m 23,0 km/h (4 Bft) 95,74 %
01.12.2015 16:42 10,0 C 11,1 C 10,0 C 99 % 15 lf 1023,2 hPa 0,0 l/m 0 min 2 min 0 W/m 25,1 km/h (4 Bft) 95,74 %
01.12.2015 16:44 10,2 C 11,1 C 10,0 C 99 % 15 lf 1023,2 hPa 0,0 l/m 0 min 0 min 0 W/m 20,9 km/h (4 Bft) 100,00 %
01.12.2015 16:46 10,4 C 11,1 C 10,0 C 99 % 15 lf 1023,3 hPa 0,0 l/m 0 min 0 min 0 W/m 20,9 km/h (4 Bft) 97,87 %
01.12.2015 16:48 10,6 C 11,7 C 10,0 C 99 % 15 lf 1023,3 hPa 0,0 l/m 0 min 0 min 0 W/m 16,7 km/h (3 Bft) 97,83 %
01.12.2015 16:50 10,7 C 11,7 C 10,0 C 99 % 15 lf 1023,3 hPa 0,0 l/m 0 min 0 min 0 W/m 18,8 km/h (3 Bft) 100,00 %
01.12.2015 16:52 10,8 C 11,7 C 10,0 C 99 % 15 lf 1023,4 hPa 0,0 l/m 0 min 0 min 0 W/m 20,9 km/h (4 Bft) 97,87 %
01.12.2015 16:54 10,9 C 11,7 C 10,0 C 100 % 15 lf 1023,3 hPa 0,0 l/m 0 min 0 min 0 W/m 20,9 km/h (4 Bft) 97,87 %
01.12.2015 16:56 11,0 C 11,7 C 10,0 C 99 % 15 lf 1023,3 hPa 0,0 l/m 0 min 2 min 0 W/m 25,1 km/h (4 Bft) 100,00 %
01.12.2015 16:58 11,1 C 11,7 C 10,0 C 99 % 15 lf 1023,3 hPa 0,0 l/m 0 min 0 min 0 W/m 18,8 km/h (3 Bft) 97,87 %
01.12.2015 17:00 11,2 C 11,7 C 10,0 C 99 % 15 lf 1023,3 hPa 0,0 l/m 0 min 0 min 0 W/m 29,3 km/h (5 Bft) 100,00 %
01.12.2015 17:02 11,2 C 11,7 C 10,0 C 100 % 15 lf 1023,3 hPa 0,0 l/m 0 min 0 min 0 W/m 20,9 km/h (4 Bft) 97,87 %
01.12.2015 17:04 11,2 C 11,7 C 10,0 C 100 % 15 lf 1023,3 hPa 0,0 l/m 0 min 2 min 0 W/m 23,0 km/h (4 Bft) 97,87 %
01.12.2015 17:06 11,3 C 11,7 C 10,0 C 100 % 15 lf 1023,4 hPa 0,0 l/m 0 min 0 min 0 W/m 23,0 km/h (4 Bft) 97,87 %
01.12.2015 17:08 11,3 C 11,7 C 10,0 C 100 % 15 lf 1023,4 hPa 0,0 l/m 0 min 0 min 0 W/m 20,9 km/h (4 Bft) 100,00 %
01.12.2015 17:10 11,3 C 11,7 C 10,0 C 100 % 15 lf 1023,4 hPa 0,0 l/m 0 min 0 min 0 W/m 25,1 km/h (4 Bft) 100,00 %
01.12.2015 17:12 11,3 C 11,7 C 10,0 C 100 % 15 lf 1023,4 hPa 0,0 l/m 0 min 2 min 0 W/m 35,6 km/h (5 Bft) 97,83 %
01.12.2015 17:14 11,3 C 11,7 C 10,0 C 100 % 15 lf 1023,5 hPa 0,0 l/m 0 min 2 min 0 W/m 25,1 km/h (4 Bft) 97,87 %
01.12.2015 17:16 11,3 C 11,7 C 10,0 C 100 % 15 lf 1023,5 hPa 0,0 l/m 0 min 0 min 0 W/m 20,9 km/h (4 Bft) 97,87 %
01.12.2015 17:18 11,3 C 11,7 C 10,0 C 100 % 15 lf 1023,5 hPa 0,0 l/m 0 min 0 min 0 W/m 20,9 km/h (4 Bft) 100,00 %
01.12.2015 17:20 11,4 C 11,7 C 10,0 C 100 % 15 lf 1023,6 hPa 0,2 l/m 0 min 0 min 0 W/m 23,0 km/h (4 Bft) 100,00 %
01.12.2015 17:22 11,4 C 11,7 C 10,0 C 100 % 15 lf 1023,7 hPa 0,0 l/m 0 min 0 min 0 W/m 31,4 km/h (5 Bft) 97,83 %
01.12.2015 17:24 11,4 C 11,7 C 10,0 C 100 % 15 lf 1023,6 hPa 0,0 l/m 0 min 0 min 0 W/m 31,4 km/h (5 Bft) 95,74 %
01.12.2015 17:26 11,4 C 11,7 C 10,0 C 100 % 15 lf 1023,7 hPa 0,0 l/m 0 min 2 min 0 W/m 23,0 km/h (4 Bft) 97,87 %
01.12.2015 17:28 11,4 C 11,7 C 10,0 C 100 % 15 lf 1023,7 hPa 0,0 l/m 0 min 0 min 0 W/m 20,9 km/h (4 Bft) 95,74 %
01.12.2015 17:30 11,4 C 11,7 C 10,0 C 100 % 15 lf 1023,7 hPa 0,0 l/m 0 min 0 min 0 W/m 18,8 km/h (3 Bft) 97,87 %
01.12.2015 17:32 11,4 C 11,7 C 10,0 C 100 % 15 lf 1023,7 hPa 0,0 l/m 0 min 0 min 0 W/m 20,9 km/h (4 Bft) 97,87 %
01.12.2015 17:34 11,4 C 11,7 C 10,0 C 100 % 15 lf 1023,7 hPa 0,0 l/m 0 min 0 min 0 W/m 20,9 km/h (4 Bft) 97,83 %
01.12.2015 17:36 11,4 C 11,7 C 10,0 C 100 % 15 lf 1023,8 hPa 0,0 l/m 0 min 0 min 0 W/m 25,1 km/h (4 Bft) 97,87 %
01.12.2015 17:38 11,4 C 11,7 C 10,0 C 100 % 15 lf 1023,7 hPa 0,0 l/m 0 min 0 min 0 W/m 27,2 km/h (4 Bft) 100,00 %
01.12.2015 17:40 11,4 C 11,7 C 10,0 C 100 % 15 lf 1023,7 hPa 0,0 l/m 0 min 2 min 0 W/m 27,2 km/h (4 Bft) 93,62 %
01.12.2015 17:42 11,4 C 11,7 C 10,0 C 100 % 15 lf 1023,7 hPa 0,0 l/m 0 min 0 min 0 W/m 23,0 km/h (4 Bft) 97,87 %
01.12.2015 17:44 11,4 C 11,7 C 10,0 C 100 % 15 lf 1023,8 hPa 0,0 l/m 0 min 0 min 0 W/m 31,4 km/h (5 Bft) 97,87 %
01.12.2015 17:46 11,4 C 11,7 C 10,0 C 100 % 15 lf 1023,8 hPa 0,0 l/m 0 min 0 min 0 W/m 23,0 km/h (4 Bft) 95,65 %
01.12.2015 17:48 11,5 C 11,7 C 10,0 C 100 % 15 lf 1023,8 hPa 0,0 l/m 0 min 0 min 0 W/m 23,0 km/h (4 Bft) 97,87 %
01.12.2015 17:50 11,5 C 11,7 C 10,0 C 100 % 15 lf 1023,8 hPa 0,0 l/m 0 min 0 min 0 W/m 16,7 km/h (3 Bft) 97,87 %
01.12.2015 17:52 11,5 C 11,7 C 10,0 C 100 % 15 lf 1023,8 hPa 0,0 l/m 0 min 0 min 0 W/m 23,0 km/h (4 Bft) 97,87 %
01.12.2015 17:54 11,5 C 11,7 C 10,0 C 100 % 15 lf 1023,8 hPa 0,0 l/m 0 min 0 min 0 W/m 18,8 km/h (3 Bft) 100,00 %
01.12.2015 17:56 11,5 C 11,7 C 10,0 C 100 % 15 lf 1023,9 hPa 0,0 l/m 0 min 0 min 0 W/m 18,8 km/h (3 Bft) 97,87 %
01.12.2015 17:58 11,5 C 11,7 C 10,0 C 100 % 15 lf 1024,0 hPa 0,0 l/m 0 min 0 min 0 W/m 23,0 km/h (4 Bft) 100,00 %
01.12.2015 18:00 11,5 C 11,7 C 10,0 C 100 % 15 lf 1023,9 hPa 0,0 l/m 0 min 0 min 0 W/m 25,1 km/h (4 Bft) 97,87 %
01.12.2015 18:02 11,5 C 11,7 C 10,0 C 100 % 15 lf 1024,0 hPa 0,0 l/m 0 min 0 min 0 W/m 23,0 km/h (4 Bft) 95,74 %
01.12.2015 18:06 11,5 C 11,7 C 10,0 C 100 % 15 lf 1023,9 hPa 0,0 l/m 0 min 0 min 0 W/m 25,1 km/h (4 Bft) 98,78 %
01.12.2015 18:08 11,5 C 11,7 C 10,0 C 100 % 15 lf 1024,0 hPa 0,0 l/m 0 min 2 min 0 W/m 23,0 km/h (4 Bft) 93,62 %
01.12.2015 18:10 11,5 C 11,7 C 10,0 C 100 % 15 lf 1024,1 hPa 0,0 l/m 0 min 2 min 0 W/m 16,7 km/h (3 Bft) 97,87 %
01.12.2015 18:12 11,5 C 11,7 C 10,0 C 100 % 15 lf 1024,1 hPa 0,0 l/m 0 min 0 min 0 W/m 29,3 km/h (5 Bft) 97,83 %
01.12.2015 18:14 11,5 C 11,7 C 10,0 C 100 % 15 lf 1024,1 hPa 0,0 l/m 0 min 0 min 0 W/m 25,1 km/h (4 Bft) 95,74 %
01.12.2015 18:16 11,5 C 11,7 C 10,0 C 99 % 15 lf 1024,1 hPa 0,0 l/m 0 min 0 min 0 W/m 18,8 km/h (3 Bft) 95,74 %
01.12.2015 18:18 11,5 C 11,7 C 10,0 C 99 % 15 lf 1024,2 hPa 0,0 l/m 0 min 0 min 0 W/m 16,7 km/h (3 Bft) 97,87 %
01.12.2015 18:20 11,5 C 11,7 C 10,0 C 100 % 15 lf 1024,2 hPa 0,0 l/m 0 min 2 min 0 W/m 20,9 km/h (4 Bft) 93,62 %
01.12.2015 18:22 11,5 C 11,7 C 10,0 C 99 % 15 lf 1024,3 hPa 0,0 l/m 0 min 0 min 0 W/m 25,1 km/h (4 Bft) 93,62 %
01.12.2015 18:24 11,5 C 11,7 C 10,0 C 99 % 15 lf 1024,2 hPa 0,0 l/m 0 min 0 min 0 W/m 23,0 km/h (4 Bft) 95,74 %
01.12.2015 18:26 11,5 C 11,7 C 10,0 C 99 % 15 lf 1024,3 hPa 0,0 l/m 0 min 0 min 0 W/m 18,8 km/h (3 Bft) 95,65 %
01.12.2015 18:28 11,5 C 11,7 C 10,0 C 99 % 15 lf 1024,3 hPa 0,0 l/m 0 min 0 min 0 W/m 20,9 km/h (4 Bft) 93,62 %
01.12.2015 18:30 11,5 C 11,7 C 10,0 C 99 % 15 lf 1024,3 hPa 0,0 l/m 0 min 0 min 0 W/m 20,9 km/h (4 Bft) 95,74 %
01.12.2015 18:32 11,5 C 11,7 C 10,0 C 99 % 15 lf 1024,3 hPa 0,0 l/m 0 min 2 min 0 W/m 16,7 km/h (3 Bft) 93,62 %
01.12.2015 18:34 11,4 C 11,7 C 10,0 C 99 % 15 lf 1024,3 hPa 0,0 l/m 0 min 2 min 0 W/m 14,6 km/h (3 Bft) 95,74 %
01.12.2015 18:36 11,4 C 11,7 C 10,0 C 99 % 15 lf 1024,3 hPa 0,0 l/m 0 min 0 min 0 W/m 27,2 km/h (4 Bft) 95,65 %
01.12.2015 18:38 11,5 C 11,7 C 10,0 C 99 % 15 lf 1024,3 hPa 0,0 l/m 0 min 0 min 0 W/m 14,6 km/h (3 Bft) 91,49 %
01.12.2015 18:40 11,4 C 11,7 C 10,0 C 99 % 15 lf 1024,4 hPa 0,0 l/m 0 min 0 min 0 W/m 18,8 km/h (3 Bft) 95,74 %
01.12.2015 18:42 11,4 C 11,7 C 10,0 C 99 % 15 lf 1024,3 hPa 0,0 l/m 0 min 0 min 0 W/m 18,8 km/h (3 Bft) 93,62 %
01.12.2015 18:44 11,4 C 11,7 C 10,0 C 99 % 15 lf 1024,3 hPa 0,0 l/m 0 min 0 min 0 W/m 20,9 km/h (4 Bft) 93,62 %
01.12.2015 18:46 11,4 C 11,7 C 10,0 C 99 % 15 lf 1024,3 hPa 0,0 l/m 0 min 0 min 0 W/m 20,9 km/h (4 Bft) 93,62 %
01.12.2015 18:48 11,4 C 11,7 C 10,0 C 99 % 15 lf 1024,3 hPa 0,0 l/m 0 min 2 min 0 W/m 31,4 km/h (5 Bft) 93,48 %
01.12.2015 18:50 11,4 C 11,7 C 10,0 C 99 % 15 lf 1024,3 hPa 0,0 l/m 0 min 2 min 0 W/m 25,1 km/h (4 Bft) 91,49 %
01.12.2015 18:52 11,4 C 11,7 C 10,0 C 99 % 15 lf 1024,3 hPa 0,0 l/m 0 min 0 min 0 W/m 16,7 km/h (3 Bft) 91,49 %
01.12.2015 18:54 11,4 C 11,7 C 10,0 C 99 % 15 lf 1024,3 hPa 0,0 l/m 0 min 0 min 0 W/m 14,6 km/h (3 Bft) 87,23 %
01.12.2015 18:56 11,4 C 11,1 C 10,0 C 99 % 15 lf 1024,4 hPa 0,0 l/m 0 min 0 min 0 W/m 18,8 km/h (3 Bft) 93,62 %
01.12.2015 18:58 11,4 C 11,7 C 10,0 C 99 % 15 lf 1024,4 hPa 0,0 l/m 0 min 2 min 0 W/m 25,1 km/h (4 Bft) 93,62 %
01.12.2015 19:00 11,4 C 11,1 C 10,0 C 99 % 15 lf 1024,4 hPa 0,0 l/m 0 min 0 min 0 W/m 23,0 km/h (4 Bft) 89,13 %
01.12.2015 19:02 11,4 C 11,1 C 10,0 C 99 % 15 lf 1024,4 hPa 0,0 l/m 0 min 0 min 0 W/m 20,9 km/h (4 Bft) 91,49 %
01.12.2015 19:04 11,4 C 11,1 C 10,0 C 99 % 15 lf 1024,4 hPa 0,0 l/m 0 min 0 min 0 W/m 18,8 km/h (3 Bft) 89,36 %
01.12.2015 19:06 11,4 C 11,1 C 10,0 C 99 % 15 lf 1024,4 hPa 0,0 l/m 0 min 0 min 0 W/m 20,9 km/h (4 Bft) 89,36 %
01.12.2015 19:08 11,4 C 11,1 C 10,0 C 99 % 15 lf 1024,5 hPa 0,0 l/m 0 min 0 min 0 W/m 27,2 km/h (4 Bft) 91,49 %
01.12.2015 19:10 11,4 C 11,1 C 10,0 C 99 % 15 lf 1024,5 hPa 0,0 l/m 0 min 0 min 0 W/m 20,9 km/h (4 Bft) 93,62 %
01.12.2015 19:12 11,4 C 11,1 C 10,0 C 99 % 15 lf 1024,5 hPa 0,0 l/m 0 min 0 min 0 W/m 27,2 km/h (4 Bft) 91,30 %
01.12.2015 19:14 11,4 C 11,1 C 10,0 C 99 % 15 lf 1024,5 hPa 0,0 l/m 0 min 2 min 0 W/m 23,0 km/h (4 Bft) 93,62 %
01.12.2015 19:16 11,4 C 11,1 C 10,0 C 99 % 15 lf 1024,6 hPa 0,0 l/m 0 min 0 min 0 W/m 18,8 km/h (3 Bft) 95,74 %
01.12.2015 19:18 11,4 C 11,1 C 10,0 C 99 % 15 lf 1024,6 hPa 0,0 l/m 0 min 0 min 0 W/m 23,0 km/h (4 Bft) 93,62 %
01.12.2015 19:20 11,4 C 11,1 C 10,0 C 99 % 15 lf 1024,6 hPa 0,0 l/m 0 min 0 min 0 W/m 18,8 km/h (3 Bft) 93,62 %
01.12.2015 19:22 11,4 C 11,1 C 10,0 C 99 % 15 lf 1024,7 hPa 0,0 l/m 0 min 0 min 0 W/m 16,7 km/h (3 Bft) 91,49 %
01.12.2015 19:24 11,4 C 11,1 C 10,0 C 99 % 15 lf 1024,7 hPa 0,0 l/m 0 min 0 min 0 W/m 23,0 km/h (4 Bft) 95,65 %
01.12.2015 19:26 11,4 C 11,1 C 10,0 C 99 % 15 lf 1024,6 hPa 0,0 l/m 0 min 0 min 0 W/m 18,8 km/h (3 Bft) 95,74 %
01.12.2015 19:28 11,4 C 11,1 C 10,0 C 99 % 15 lf 1024,7 hPa 0,0 l/m 0 min 0 min 0 W/m 18,8 km/h (3 Bft) 89,36 %
01.12.2015 19:30 11,4 C 11,1 C 10,0 C 99 % 15 lf 1024,7 hPa 0,0 l/m 0 min 0 min 0 W/m 27,2 km/h (4 Bft) 97,87 %
01.12.2015 19:32 11,4 C 11,7 C 10,0 C 99 % 15 lf 1024,7 hPa 0,0 l/m 0 min 0 min 0 W/m 14,6 km/h (3 Bft) 91,49 %
01.12.2015 19:34 11,4 C 11,7 C 10,0 C 99 % 15 lf 1024,7 hPa 0,0 l/m 0 min 0 min 0 W/m 18,8 km/h (3 Bft) 97,83 %
01.12.2015 19:36 11,4 C 11,7 C 10,0 C 99 % 15 lf 1024,8 hPa 0,0 l/m 0 min 0 min 0 W/m 18,8 km/h (3 Bft) 95,74 %
01.12.2015 19:38 11,4 C 11,7 C 10,0 C 99 % 15 lf 1024,8 hPa 0,0 l/m 0 min 0 min 0 W/m 25,1 km/h (4 Bft) 95,74 %
01.12.2015 19:40 11,4 C 11,7 C 10,0 C 99 % 15 lf 1024,7 hPa 0,0 l/m 0 min 0 min 0 W/m 29,3 km/h (5 Bft) 97,87 %
01.12.2015 19:42 11,4 C 11,7 C 10,0 C 99 % 15 lf 1024,7 hPa 0,0 l/m 0 min 0 min 0 W/m 23,0 km/h (4 Bft) 95,74 %
01.12.2015 19:44 11,4 C 11,7 C 10,0 C 99 % 15 lf 1024,8 hPa 0,0 l/m 0 min 0 min 0 W/m 27,2 km/h (4 Bft) 97,87 %
01.12.2015 19:46 11,4 C 11,1 C 10,0 C 99 % 15 lf 1024,8 hPa 0,0 l/m 0 min 0 min 0 W/m 18,8 km/h (3 Bft) 95,65 %
01.12.2015 19:48 11,3 C 11,1 C 10,0 C 99 % 15 lf 1024,9 hPa 0,0 l/m 0 min 0 min 0 W/m 10,5 km/h (2 Bft) 95,74 %
01.12.2015 19:50 11,4 C 11,1 C 10,0 C 99 % 15 lf 1024,9 hPa 0,0 l/m 0 min 0 min 0 W/m 16,7 km/h (3 Bft) 97,87 %
01.12.2015 19:52 11,3 C 11,1 C 10,0 C 99 % 15 lf 1024,9 hPa 0,0 l/m 0 min 0 min 0 W/m 14,6 km/h (3 Bft) 100,00 %
01.12.2015 19:54 11,3 C 11,1 C 10,0 C 99 % 15 lf 1024,8 hPa 0,0 l/m 0 min 0 min 0 W/m 10,5 km/h (2 Bft) 97,87 %
01.12.2015 19:56 11,3 C 11,1 C 10,0 C 99 % 15 lf 1024,8 hPa 0,0 l/m 0 min 0 min 0 W/m 10,5 km/h (2 Bft) 100,00 %
01.12.2015 19:58 11,3 C 11,1 C 10,0 C 99 % 15 lf 1024,8 hPa 0,0 l/m 0 min 0 min 0 W/m 20,9 km/h (4 Bft) 100,00 %
01.12.2015 20:00 11,3 C 11,1 C 10,0 C 99 % 15 lf 1024,9 hPa 0,0 l/m 0 min 0 min 0 W/m 20,9 km/h (4 Bft) 97,87 %
01.12.2015 20:02 11,3 C 11,1 C 10,0 C 99 % 15 lf 1024,8 hPa 0,0 l/m 0 min 0 min 0 W/m 27,2 km/h (4 Bft) 97,87 %
01.12.2015 20:04 11,3 C 11,1 C 10,0 C 99 % 15 lf 1024,9 hPa 0,0 l/m 0 min 0 min 0 W/m 20,9 km/h (4 Bft) 100,00 %
01.12.2015 20:06 11,3 C 11,1 C 10,0 C 99 % 15 lf 1024,9 hPa 0,0 l/m 0 min 0 min 0 W/m 25,1 km/h (4 Bft) 97,87 %
01.12.2015 20:08 11,3 C 11,1 C 9,4 C 99 % 15 lf 1024,8 hPa 0,0 l/m 0 min 0 min 0 W/m 23,0 km/h (4 Bft) 100,00 %
01.12.2015 20:10 11,3 C 11,1 C 9,4 C 99 % 15 lf 1024,9 hPa 0,0 l/m 0 min 0 min 0 W/m 20,9 km/h (4 Bft) 100,00 %
01.12.2015 20:12 11,3 C 11,1 C 9,4 C 99 % 15 lf 1024,8 hPa 0,0 l/m 0 min 0 min 0 W/m 20,9 km/h (4 Bft) 100,00 %
01.12.2015 20:14 11,3 C 11,1 C 9,4 C 99 % 15 lf 1024,9 hPa 0,0 l/m 0 min 0 min 0 W/m 27,2 km/h (4 Bft) 100,00 %
01.12.2015 20:16 11,3 C 11,1 C 9,4 C 99 % 15 lf 1024,8 hPa 0,0 l/m 0 min 0 min 0 W/m 18,8 km/h (3 Bft) 100,00 %
01.12.2015 20:18 11,2 C 11,1 C 9,4 C 99 % 15 lf 1024,8 hPa 0,0 l/m 0 min 0 min 0 W/m 35,6 km/h (5 Bft) 97,87 %
01.12.2015 20:20 11,2 C 11,1 C 9,4 C 99 % 15 lf 1024,8 hPa 0,0 l/m 0 min 0 min 0 W/m 29,3 km/h (5 Bft) 100,00 %
01.12.2015 20:22 11,2 C 11,1 C 9,4 C 99 % 15 lf 1024,9 hPa 0,0 l/m 0 min 0 min 0 W/m 25,1 km/h (4 Bft) 100,00 %
01.12.2015 20:24 11,2 C 11,1 C 9,4 C 99 % 15 lf 1024,9 hPa 0,0 l/m 0 min 0 min 0 W/m 29,3 km/h (5 Bft) 97,87 %
01.12.2015 20:26 11,2 C 11,1 C 9,4 C 99 % 15 lf 1024,9 hPa 0,0 l/m 0 min 0 min 0 W/m 29,3 km/h (5 Bft) 100,00 %
01.12.2015 20:28 11,2 C 11,1 C 9,4 C 99 % 15 lf 1024,9 hPa 0,0 l/m 0 min 0 min 0 W/m 23,0 km/h (4 Bft) 93,62 %
01.12.2015 20:30 11,2 C 11,1 C 9,4 C 99 % 15 lf 1024,9 hPa 0,0 l/m 0 min 0 min 0 W/m 27,2 km/h (4 Bft) 100,00 %
01.12.2015 20:32 11,2 C 11,1 C 9,4 C 99 % 15 lf 1024,9 hPa 0,0 l/m 0 min 0 min 0 W/m 25,1 km/h (4 Bft) 100,00 %
01.12.2015 20:34 11,2 C 11,1 C 9,4 C 99 % 15 lf 1024,9 hPa 0,0 l/m 0 min 0 min 0 W/m 20,9 km/h (4 Bft) 97,87 %
01.12.2015 20:36 11,2 C 11,1 C 9,4 C 99 % 15 lf 1024,9 hPa 0,0 l/m 0 min 0 min 0 W/m 18,8 km/h (3 Bft) 97,87 %
01.12.2015 20:38 11,2 C 11,1 C 9,4 C 99 % 15 lf 1025,0 hPa 0,0 l/m 0 min 0 min 0 W/m 20,9 km/h (4 Bft) 100,00 %
01.12.2015 20:40 11,2 C 11,1 C 9,4 C 99 % 15 lf 1025,0 hPa 0,0 l/m 0 min 0 min 0 W/m 16,7 km/h (3 Bft) 100,00 %
01.12.2015 20:42 11,2 C 11,1 C 9,4 C 99 % 15 lf 1025,0 hPa 0,0 l/m 0 min 0 min 0 W/m 20,9 km/h (4 Bft) 100,00 %
01.12.2015 20:44 11,2 C 11,1 C 9,4 C 99 % 14 lf 1025,0 hPa 0,0 l/m 0 min 0 min 0 W/m 20,9 km/h (4 Bft) 100,00 %
01.12.2015 20:46 11,2 C 11,1 C 9,4 C 99 % 14 lf 1025,0 hPa 0,0 l/m 0 min 0 min 0 W/m 18,8 km/h (3 Bft) 100,00 %
01.12.2015 20:48 11,2 C 11,1 C 9,4 C 99 % 14 lf 1025,0 hPa 0,0 l/m 0 min 0 min 0 W/m 18,8 km/h (3 Bft) 100,00 %
01.12.2015 20:50 11,1 C 11,1 C 9,4 C 99 % 14 lf 1025,0 hPa 0,0 l/m 0 min 0 min 0 W/m 18,8 km/h (3 Bft) 97,87 %
01.12.2015 20:52 11,1 C 11,1 C 9,4 C 99 % 14 lf 1025,0 hPa 0,0 l/m 0 min 0 min 0 W/m 20,9 km/h (4 Bft) 97,87 %
01.12.2015 20:54 11,1 C 11,1 C 9,4 C 99 % 14 lf 1025,1 hPa 0,0 l/m 0 min 0 min 0 W/m 18,8 km/h (3 Bft) 97,83 %
01.12.2015 20:56 11,1 C 11,1 C 9,4 C 99 % 14 lf 1025,1 hPa 0,0 l/m 0 min 0 min 0 W/m 25,1 km/h (4 Bft) 95,74 %
01.12.2015 20:58 11,1 C 11,1 C 9,4 C 99 % 13 lf 1025,1 hPa 0,0 l/m 0 min 0 min 0 W/m 16,7 km/h (3 Bft) 100,00 %
01.12.2015 21:00 11,1 C 11,1 C 9,4 C 99 % 14 lf 1025,1 hPa 0,0 l/m 0 min 0 min 0 W/m 20,9 km/h (4 Bft) 97,87 %
01.12.2015 21:02 11,1 C 11,1 C 9,4 C 99 % 13 lf 1025,2 hPa 0,0 l/m 0 min 0 min 0 W/m 23,0 km/h (4 Bft) 100,00 %
01.12.2015 21:04 11,1 C 11,1 C 9,4 C 99 % 13 lf 1025,2 hPa 0,0 l/m 0 min 0 min 0 W/m 20,9 km/h (4 Bft) 100,00 %
01.12.2015 21:06 11,1 C 11,1 C 9,4 C 99 % 13 lf 1025,1 hPa 0,0 l/m 0 min 0 min 0 W/m 20,9 km/h (4 Bft) 97,83 %
01.12.2015 21:08 11,1 C 11,1 C 9,4 C 99 % 13 lf 1025,2 hPa 0,0 l/m 0 min 0 min 0 W/m 25,1 km/h (4 Bft) 95,74 %
01.12.2015 21:10 11,1 C 11,1 C 9,4 C 99 % 13 lf 1025,2 hPa 0,0 l/m 0 min 0 min 0 W/m 20,9 km/h (4 Bft) 93,62 %
01.12.2015 21:12 11,1 C 11,1 C 9,4 C 99 % 12 lf 1025,2 hPa 0,0 l/m 0 min 0 min 0 W/m 23,0 km/h (4 Bft) 97,87 %
01.12.2015 21:14 11,1 C 11,1 C 9,4 C 99 % 13 lf 1025,2 hPa 0,0 l/m 0 min 0 min 0 W/m 20,9 km/h (4 Bft) 97,87 %
01.12.2015 21:16 11,1 C 11,1 C 9,4 C 99 % 12 lf 1025,2 hPa 0,0 l/m 0 min 0 min 0 W/m 18,8 km/h (3 Bft) 95,74 %
01.12.2015 21:18 11,1 C 11,1 C 9,4 C 99 % 12 lf 1025,2 hPa 0,0 l/m 0 min 0 min 0 W/m 23,0 km/h (4 Bft) 91,30 %
01.12.2015 21:20 11,1 C 11,1 C 9,4 C 99 % 12 lf 1025,2 hPa 0,0 l/m 0 min 0 min 0 W/m 20,9 km/h (4 Bft) 95,74 %
01.12.2015 21:22 11,1 C 11,1 C 9,4 C 99 % 11 lf 1025,2 hPa 0,0 l/m 0 min 0 min 0 W/m 16,7 km/h (3 Bft) 97,87 %
01.12.2015 21:24 11,1 C 10,6 C 9,4 C 99 % 12 lf 1025,2 hPa 0,0 l/m 0 min 0 min 0 W/m 23,0 km/h (4 Bft) 95,74 %
01.12.2015 21:26 11,1 C 10,6 C 9,4 C 99 % 11 lf 1025,2 hPa 0,0 l/m 0 min 0 min 0 W/m 20,9 km/h (4 Bft) 95,74 %
01.12.2015 21:28 11,1 C 10,6 C 9,4 C 99 % 11 lf 1025,2 hPa 0,0 l/m 0 min 0 min 0 W/m 16,7 km/h (3 Bft) 93,62 %
01.12.2015 21:30 11,0 C 10,6 C 9,4 C 99 % 11 lf 1025,2 hPa 0,0 l/m 0 min 0 min 0 W/m 16,7 km/h (3 Bft) 95,65 %
01.12.2015 21:32 11,0 C 10,6 C 8,9 C 99 % 11 lf 1025,2 hPa 0,0 l/m 0 min 0 min 0 W/m 18,8 km/h (3 Bft) 93,62 %
01.12.2015 21:34 11,0 C 10,6 C 8,9 C 99 % 10 lf 1025,1 hPa 0,0 l/m 0 min 0 min 0 W/m 27,2 km/h (4 Bft) 91,49 %
01.12.2015 21:36 10,9 C 10,6 C 8,9 C 99 % 10 lf 1025,1 hPa 0,0 l/m 0 min 0 min 0 W/m 23,0 km/h (4 Bft) 95,74 %
01.12.2015 21:38 10,9 C 10,6 C 8,9 C 99 % 10 lf 1025,1 hPa 0,0 l/m 0 min 0 min 0 W/m 27,2 km/h (4 Bft) 89,36 %
01.12.2015 21:40 10,9 C 10,6 C 8,9 C 99 % 10 lf 1025,1 hPa 0,0 l/m 0 min 0 min 0 W/m 31,4 km/h (5 Bft) 95,74 %
01.12.2015 21:42 10,9 C 10,6 C 8,9 C 98 % 9 lf 1025,2 hPa 0,0 l/m 0 min 0 min 0 W/m 27,2 km/h (4 Bft) 91,30 %
01.12.2015 21:44 10,9 C 10,6 C 8,9 C 98 % 9 lf 1025,2 hPa 0,0 l/m 0 min 0 min 0 W/m 20,9 km/h (4 Bft) 91,49 %
01.12.2015 21:46 10,9 C 10,6 C 9,4 C 98 % 8 lf 1025,3 hPa 0,0 l/m 0 min 0 min 0 W/m 23,0 km/h (4 Bft) 93,62 %
01.12.2015 21:48 10,9 C 10,6 C 9,4 C 98 % 7 lf 1025,2 hPa 0,0 l/m 0 min 0 min 0 W/m 25,1 km/h (4 Bft) 95,74 %
01.12.2015 21:50 10,9 C 10,6 C 9,4 C 98 % 6 lf 1025,3 hPa 0,0 l/m 0 min 0 min 0 W/m 27,2 km/h (4 Bft) 95,74 %
01.12.2015 21:52 10,9 C 10,6 C 9,4 C 98 % 6 lf 1025,3 hPa 0,0 l/m 0 min 0 min 0 W/m 16,7 km/h (3 Bft) 95,74 %
01.12.2015 21:54 10,9 C 11,1 C 9,4 C 98 % 5 lf 1025,2 hPa 0,0 l/m 0 min 0 min 0 W/m 23,0 km/h (4 Bft) 95,65 %
01.12.2015 21:56 10,9 C 11,1 C 9,4 C 98 % 4 lf 1025,3 hPa 0,0 l/m 0 min 0 min 0 W/m 20,9 km/h (4 Bft) 91,49 %
01.12.2015 21:58 11,0 C 11,1 C 9,4 C 98 % 4 lf 1025,4 hPa 0,0 l/m 0 min 0 min 0 W/m 27,2 km/h (4 Bft) 97,87 %
01.12.2015 22:00 11,0 C 11,1 C 9,4 C 98 % 4 lf 1025,4 hPa 0,0 l/m 0 min 0 min 0 W/m 20,9 km/h (4 Bft) 93,62 %
01.12.2015 22:02 11,0 C 11,1 C 9,4 C 98 % 3 lf 1025,3 hPa 0,0 l/m 0 min 0 min 0 W/m 23,0 km/h (4 Bft) 93,62 %
01.12.2015 22:04 11,0 C 11,1 C 9,4 C 98 % 3 lf 1025,4 hPa 0,0 l/m 0 min 0 min 0 W/m 25,1 km/h (4 Bft) 93,48 %
01.12.2015 22:06 11,0 C 11,1 C 9,4 C 98 % 2 lf 1025,3 hPa 0,0 l/m 0 min 0 min 0 W/m 27,2 km/h (4 Bft) 91,49 %
01.12.2015 22:08 11,0 C 11,1 C 9,4 C 98 % 2 lf 1025,3 hPa 0,0 l/m 0 min 0 min 0 W/m 25,1 km/h (4 Bft) 91,49 %
01.12.2015 22:10 11,1 C 11,1 C 9,4 C 98 % 2 lf 1025,2 hPa 0,0 l/m 0 min 0 min 0 W/m 18,8 km/h (3 Bft) 95,74 %
01.12.2015 22:12 11,1 C 11,1 C 9,4 C 98 % 1 lf 1025,3 hPa 0,0 l/m 0 min 0 min 0 W/m 25,1 km/h (4 Bft) 93,62 %
01.12.2015 22:14 11,1 C 11,1 C 9,4 C 98 % 1 lf 1025,3 hPa 0,0 l/m 0 min 0 min 0 W/m 25,1 km/h (4 Bft) 91,49 %
01.12.2015 22:16 11,1 C 11,1 C 9,4 C 98 % 1 lf 1025,3 hPa 0,0 l/m 0 min 0 min 0 W/m 23,0 km/h (4 Bft) 95,65 %
01.12.2015 22:18 11,1 C 11,1 C 9,4 C 97 % 1 lf 1025,3 hPa 0,0 l/m 0 min 0 min 0 W/m 23,0 km/h (4 Bft) 91,49 %
01.12.2015 22:20 11,1 C 10,6 C 9,4 C 97 % 1 lf 1025,3 hPa 0,0 l/m 0 min 0 min 0 W/m 25,1 km/h (4 Bft) 95,74 %
01.12.2015 22:22 11,1 C 10,6 C 9,4 C 97 % 1 lf 1025,3 hPa 0,0 l/m 0 min 0 min 0 W/m 20,9 km/h (4 Bft) 95,74 %
01.12.2015 22:24 11,1 C 10,6 C 8,9 C 97 % 1 lf 1025,3 hPa 0,0 l/m 0 min 0 min 0 W/m 20,9 km/h (4 Bft) 97,87 %
01.12.2015 22:26 11,1 C 10,6 C 8,9 C 97 % 1 lf 1025,3 hPa 0,0 l/m 0 min 0 min 0 W/m 29,3 km/h (5 Bft) 95,74 %
01.12.2015 22:28 11,1 C 10,6 C 8,9 C 97 % 1 lf 1025,4 hPa 0,0 l/m 0 min 0 min 0 W/m 20,9 km/h (4 Bft) 97,83 %
01.12.2015 22:30 11,1 C 10,6 C 8,9 C 97 % 1 lf 1025,3 hPa 0,0 l/m 0 min 0 min 0 W/m 20,9 km/h (4 Bft) 97,87 %
01.12.2015 22:32 11,1 C 10,6 C 8,9 C 97 % 1 lf 1025,3 hPa 0,0 l/m 0 min 0 min 0 W/m 18,8 km/h (3 Bft) 95,74 %
01.12.2015 22:34 11,1 C 10,6 C 8,9 C 97 % 0 lf 1025,3 hPa 0,0 l/m 0 min 0 min 0 W/m 23,0 km/h (4 Bft) 95,74 %
01.12.2015 22:36 11,1 C 10,6 C 8,9 C 97 % 0 lf 1025,3 hPa 0,0 l/m 0 min 0 min 0 W/m 29,3 km/h (5 Bft) 91,49 %
01.12.2015 22:38 11,1 C 10,6 C 8,9 C 97 % 0 lf 1025,3 hPa 0,0 l/m 0 min 0 min 0 W/m 25,1 km/h (4 Bft) 95,74 %
01.12.2015 22:40 11,1 C 10,6 C 8,9 C 97 % 0 lf 1025,3 hPa 0,0 l/m 0 min 0 min 0 W/m 18,8 km/h (3 Bft) 95,65 %
01.12.2015 22:42 11,0 C 10,6 C 8,9 C 97 % 0 lf 1025,3 hPa 0,0 l/m 0 min 0 min 0 W/m 25,1 km/h (4 Bft) 97,87 %
01.12.2015 22:44 11,0 C 10,6 C 8,9 C 96 % 0 lf 1025,3 hPa 0,0 l/m 0 min 0 min 0 W/m 20,9 km/h (4 Bft) 95,74 %
01.12.2015 22:46 11,0 C 10,6 C 8,9 C 96 % 0 lf 1025,2 hPa 0,0 l/m 0 min 0 min 0 W/m 29,3 km/h (5 Bft) 95,74 %
01.12.2015 22:48 11,0 C 10,6 C 9,4 C 96 % 0 lf 1025,2 hPa 0,0 l/m 0 min 0 min 0 W/m 25,1 km/h (4 Bft) 97,87 %
01.12.2015 22:50 11,0 C 10,6 C 9,4 C 96 % 0 lf 1025,2 hPa 0,0 l/m 0 min 0 min 0 W/m 31,4 km/h (5 Bft) 95,74 %
01.12.2015 22:52 11,0 C 10,6 C 9,4 C 96 % 0 lf 1025,3 hPa 0,0 l/m 0 min 0 min 0 W/m 29,3 km/h (5 Bft) 97,83 %
01.12.2015 22:54 11,0 C 10,6 C 9,4 C 96 % 0 lf 1025,3 hPa 0,0 l/m 0 min 0 min 0 W/m 23,0 km/h (4 Bft) 97,87 %
01.12.2015 22:56 11,0 C 10,6 C 9,4 C 96 % 0 lf 1025,2 hPa 0,0 l/m 0 min 0 min 0 W/m 25,1 km/h (4 Bft) 93,62 %
01.12.2015 22:58 11,0 C 10,6 C 9,4 C 96 % 0 lf 1025,3 hPa 0,0 l/m 0 min 0 min 0 W/m 25,1 km/h (4 Bft) 95,74 %
01.12.2015 23:00 11,0 C 10,6 C 9,4 C 96 % 0 lf 1025,2 hPa 0,0 l/m 0 min 0 min 0 W/m 29,3 km/h (5 Bft) 93,62 %
01.12.2015 23:02 11,0 C 10,6 C 9,4 C 96 % 0 lf 1025,2 hPa 0,0 l/m 0 min 0 min 0 W/m 25,1 km/h (4 Bft) 93,62 %
01.12.2015 23:04 11,0 C 10,6 C 9,4 C 96 % 0 lf 1025,2 hPa 0,0 l/m 0 min 0 min 0 W/m 25,1 km/h (4 Bft) 93,48 %
01.12.2015 23:06 11,0 C 10,6 C 9,4 C 96 % 0 lf 1025,2 hPa 0,0 l/m 0 min 0 min 0 W/m 27,2 km/h (4 Bft) 95,74 %
01.12.2015 23:08 11,0 C 10,6 C 9,4 C 96 % 0 lf 1025,2 hPa 0,0 l/m 0 min 0 min 0 W/m 31,4 km/h (5 Bft) 93,62 %
01.12.2015 23:10 11,0 C 10,6 C 9,4 C 96 % 0 lf 1025,2 hPa 0,0 l/m 0 min 0 min 0 W/m 23,0 km/h (4 Bft) 97,87 %
01.12.2015 23:12 11,1 C 10,6 C 9,4 C 96 % 0 lf 1025,3 hPa 0,0 l/m 0 min 0 min 0 W/m 25,1 km/h (4 Bft) 97,87 %
01.12.2015 23:14 11,1 C 10,6 C 9,4 C 95 % 0 lf 1025,2 hPa 0,0 l/m 0 min 0 min 0 W/m 18,8 km/h (3 Bft) 93,62 %
01.12.2015 23:16 11,1 C 10,6 C 9,4 C 95 % 0 lf 1025,2 hPa 0,0 l/m 0 min 0 min 0 W/m 25,1 km/h (4 Bft) 97,83 %
01.12.2015 23:18 11,1 C 10,6 C 9,4 C 95 % 0 lf 1025,2 hPa 0,0 l/m 0 min 0 min 0 W/m 23,0 km/h (4 Bft) 95,74 %
01.12.2015 23:20 11,1 C 10,6 C 9,4 C 95 % 0 lf 1025,2 hPa 0,0 l/m 0 min 0 min 0 W/m 25,1 km/h (4 Bft) 97,87 %
01.12.2015 23:22 11,1 C 10,6 C 9,4 C 95 % 0 lf 1025,2 hPa 0,0 l/m 0 min 0 min 0 W/m 23,0 km/h (4 Bft) 95,74 %
01.12.2015 23:24 11,1 C 10,6 C 9,4 C 95 % 0 lf 1025,2 hPa 0,0 l/m 0 min 0 min 0 W/m 25,1 km/h (4 Bft) 95,74 %
01.12.2015 23:26 11,1 C 10,6 C 9,4 C 95 % 0 lf 1025,2 hPa 0,0 l/m 0 min 0 min 0 W/m 20,9 km/h (4 Bft) 97,83 %
01.12.2015 23:28 11,1 C 10,6 C 9,4 C 95 % 0 lf 1025,3 hPa 0,0 l/m 0 min 0 min 0 W/m 29,3 km/h (5 Bft) 97,87 %
01.12.2015 23:30 11,1 C 10,6 C 9,4 C 95 % 0 lf 1025,3 hPa 0,0 l/m 0 min 0 min 0 W/m 23,0 km/h (4 Bft) 97,87 %
01.12.2015 23:32 11,1 C 10,6 C 9,4 C 95 % 0 lf 1025,2 hPa 0,0 l/m 0 min 0 min 0 W/m 27,2 km/h (4 Bft) 97,87 %
01.12.2015 23:34 11,1 C 10,6 C 9,4 C 94 % 0 lf 1025,3 hPa 0,0 l/m 0 min 0 min 0 W/m 31,4 km/h (5 Bft) 97,87 %
01.12.2015 23:36 11,1 C 10,6 C 9,4 C 94 % 0 lf 1025,3 hPa 0,0 l/m 0 min 0 min 0 W/m 25,1 km/h (4 Bft) 95,74 %
01.12.2015 23:38 11,1 C 10,6 C 9,4 C 94 % 0 lf 1025,3 hPa 0,0 l/m 0 min 0 min 0 W/m 20,9 km/h (4 Bft) 100,00 %
01.12.2015 23:40 11,1 C 10,6 C 9,4 C 94 % 0 lf 1025,3 hPa 0,0 l/m 0 min 0 min 0 W/m 25,1 km/h (4 Bft) 100,00 %
01.12.2015 23:42 11,1 C 10,6 C 9,4 C 94 % 0 lf 1025,3 hPa 0,0 l/m 0 min 0 min 0 W/m 20,9 km/h (4 Bft) 100,00 %
01.12.2015 23:44 11,1 C 10,6 C 9,4 C 94 % 0 lf 1025,3 hPa 0,0 l/m 0 min 0 min 0 W/m 29,3 km/h (5 Bft) 97,87 %
01.12.2015 23:46 11,1 C 10,6 C 9,4 C 93 % 0 lf 1025,3 hPa 0,0 l/m 0 min 0 min 0 W/m 31,4 km/h (5 Bft) 95,74 %
01.12.2015 23:48 11,1 C 11,1 C 9,4 C 93 % 0 lf 1025,3 hPa 0,0 l/m 0 min 0 min 0 W/m 33,5 km/h (5 Bft) 100,00 %
01.12.2015 23:50 11,2 C 11,1 C 9,4 C 93 % 0 lf 1025,3 hPa 0,0 l/m 0 min 0 min 0 W/m 25,1 km/h (4 Bft) 100,00 %
01.12.2015 23:52 11,2 C 11,1 C 9,4 C 93 % 0 lf 1025,3 hPa 0,0 l/m 0 min 0 min 0 W/m 25,1 km/h (4 Bft) 97,87 %
01.12.2015 23:54 11,2 C 11,1 C 9,4 C 93 % 0 lf 1025,3 hPa 0,0 l/m 0 min 0 min 0 W/m 27,2 km/h (4 Bft) 97,87 %
01.12.2015 23:56 11,2 C 11,7 C 9,4 C 93 % 0 lf 1025,4 hPa 0,0 l/m 0 min 0 min 0 W/m 23,0 km/h (4 Bft) 95,74 %
01.12.2015 23:58 11,2 C 11,7 C 9,4 C 93 % 0 lf 1025,4 hPa 0,0 l/m 0 min 0 min 0 W/m 23,0 km/h (4 Bft) 95,74 %
_ Min-Zeit 08:30 06:06 07:20 23:46 22:34 00:00 - - - - 06:16 04:44
Minimum _ 7,3 C 7,2 C 6,1 C 93 % 0 lf 1013,7 hPa - - - - 0,0 km/h (0 Bft) 87,23 %
_ Max-Zeit 18:08 16:48 16:42 16:54 00:00 21:58 00:06 00:00 00:00 11:24 00:08 00:06
Maximum _ 11,6 C 11,7 C 10,0 C 100 % 15 lf 1025,4 hPa 0,2 l/m 0 min 2 min 96 W/m 46,0 km/h
SW (6 Bft)
100,00 %
Durchschnitt _ 9,4 C 9,3 C 8,2 C 98 % 14 lf 1021,8 hPa #10,0 l/m #0 min. #12:15 h 33 W/m 14,8 km/h (3 Bft) 96,12 %
© 2015 W. Hausmann